Wetterdaten: Samstag, 17.03.2018
Datum Zeit Temp. Aussen Temp. o. S. +5cm Feuchte Auss BlattFeu 1 Luftdruck Regen Sonnenschein Regendauer Solar Windben Empfang
17.03.2018 00:00 0,8 C 0,0 C -0,6 C 91 % 0 lf 1004,9 hPa 0,0 l/m 0 min 0 min 0 W/m 33,8 km/h (5 Bft) 97,87 %
17.03.2018 00:02 0,8 C 0,0 C -0,6 C 91 % 0 lf 1004,9 hPa 0,0 l/m 0 min 0 min 0 W/m 27,0 km/h (4 Bft) 97,22 %
17.03.2018 00:04 0,8 C 0,0 C -0,6 C 91 % 0 lf 1005,0 hPa 0,0 l/m 0 min 0 min 0 W/m 22,5 km/h (4 Bft) 97,92 %
17.03.2018 00:08 0,8 C 0,0 C -0,6 C 91 % 0 lf 1005,0 hPa 0,0 l/m 0 min 0 min 0 W/m 45,1 km/h (6 Bft) 97,85 %
17.03.2018 00:10 0,8 C 0,0 C -0,6 C 91 % 0 lf 1004,9 hPa 0,0 l/m 0 min 0 min 0 W/m 33,8 km/h (5 Bft) 97,87 %
17.03.2018 00:12 0,8 C 0,0 C -0,6 C 91 % 0 lf 1004,9 hPa 0,0 l/m 0 min 0 min 0 W/m 31,5 km/h (5 Bft) 97,87 %
17.03.2018 00:14 0,7 C 0,0 C -0,6 C 91 % 0 lf 1004,9 hPa 0,0 l/m 0 min 0 min 0 W/m 22,5 km/h (4 Bft) 97,87 %
17.03.2018 00:16 0,7 C 0,0 C -0,6 C 91 % 0 lf 1005,0 hPa 0,0 l/m 0 min 0 min 0 W/m 33,8 km/h (5 Bft) 97,87 %
17.03.2018 00:18 0,7 C 0,0 C -0,6 C 91 % 0 lf 1005,0 hPa 0,0 l/m 0 min 0 min 0 W/m 22,5 km/h (4 Bft) 97,83 %
17.03.2018 00:20 0,7 C 0,0 C -0,6 C 91 % 0 lf 1005,1 hPa 0,0 l/m 0 min 0 min 0 W/m 31,5 km/h (5 Bft) 96,61 %
17.03.2018 00:22 0,7 C 0,0 C -0,6 C 90 % 0 lf 1005,0 hPa 0,0 l/m 0 min 0 min 0 W/m 31,5 km/h (5 Bft) 100,00 %
17.03.2018 00:24 0,7 C 0,0 C -0,6 C 91 % 0 lf 1005,0 hPa 0,0 l/m 0 min 0 min 0 W/m 33,8 km/h (5 Bft) 100,00 %
17.03.2018 00:26 0,7 C 0,0 C -0,6 C 90 % 0 lf 1005,0 hPa 0,0 l/m 0 min 0 min 0 W/m 22,5 km/h (4 Bft) 97,87 %
17.03.2018 00:28 0,7 C 0,0 C -0,6 C 90 % 0 lf 1004,9 hPa 0,0 l/m 0 min 0 min 0 W/m 38,3 km/h (5 Bft) 97,87 %
17.03.2018 00:30 0,7 C 0,0 C -0,6 C 90 % 0 lf 1005,0 hPa 0,0 l/m 0 min 0 min 0 W/m 40,6 km/h (6 Bft) 100,00 %
17.03.2018 00:32 0,7 C 0,0 C -0,6 C 90 % 0 lf 1004,9 hPa 0,0 l/m 0 min 0 min 0 W/m 36,0 km/h (5 Bft) 100,00 %
17.03.2018 00:34 0,7 C 0,0 C -0,6 C 90 % 0 lf 1004,9 hPa 0,0 l/m 0 min 0 min 0 W/m 29,3 km/h (5 Bft) 97,87 %
17.03.2018 00:36 0,7 C 0,0 C -0,6 C 90 % 0 lf 1005,0 hPa 0,0 l/m 0 min 0 min 0 W/m 31,5 km/h (5 Bft) 95,74 %
17.03.2018 00:38 0,7 C 0,0 C -0,6 C 90 % 0 lf 1005,0 hPa 0,0 l/m 0 min 0 min 0 W/m 36,0 km/h (5 Bft) 100,00 %
17.03.2018 00:40 0,7 C 0,0 C -0,6 C 90 % 0 lf 1005,0 hPa 0,0 l/m 0 min 0 min 0 W/m 42,8 km/h (6 Bft) 100,00 %
17.03.2018 00:42 0,6 C 0,0 C -0,6 C 90 % 0 lf 1005,0 hPa 0,0 l/m 0 min 0 min 0 W/m 31,5 km/h (5 Bft) 100,00 %
17.03.2018 00:44 0,6 C 0,0 C -0,6 C 90 % 0 lf 1005,0 hPa 0,0 l/m 0 min 0 min 0 W/m 33,8 km/h (5 Bft) 95,74 %
17.03.2018 00:46 0,6 C 0,0 C -0,6 C 90 % 0 lf 1004,9 hPa 0,0 l/m 0 min 0 min 0 W/m 36,0 km/h (5 Bft) 95,74 %
17.03.2018 00:48 0,6 C 0,0 C -0,6 C 90 % 0 lf 1005,0 hPa 0,0 l/m 0 min 0 min 0 W/m 29,3 km/h (5 Bft) 100,00 %
17.03.2018 00:50 0,6 C 0,0 C -0,6 C 90 % 0 lf 1004,9 hPa 0,0 l/m 0 min 0 min 0 W/m 24,8 km/h (4 Bft) 100,00 %
17.03.2018 00:52 0,6 C 0,0 C -0,6 C 90 % 0 lf 1004,9 hPa 0,0 l/m 0 min 0 min 0 W/m 36,0 km/h (5 Bft) 97,22 %
17.03.2018 00:54 0,6 C 0,0 C -0,6 C 90 % 0 lf 1005,0 hPa 0,0 l/m 0 min 0 min 0 W/m 27,0 km/h (4 Bft) 97,83 %
17.03.2018 00:56 0,5 C 0,0 C -0,6 C 90 % 0 lf 1005,0 hPa 0,0 l/m 0 min 0 min 0 W/m 31,5 km/h (5 Bft) 95,74 %
17.03.2018 00:58 0,5 C 0,0 C -0,6 C 90 % 0 lf 1005,1 hPa 0,0 l/m 0 min 0 min 0 W/m 33,8 km/h (5 Bft) 95,74 %
17.03.2018 01:00 0,5 C 0,0 C -0,6 C 90 % 0 lf 1005,0 hPa 0,0 l/m 0 min 0 min 0 W/m 38,3 km/h (5 Bft) 93,62 %
17.03.2018 01:02 0,5 C 0,0 C -0,6 C 90 % 0 lf 1005,0 hPa 0,0 l/m 0 min 0 min 0 W/m 31,5 km/h (5 Bft) 97,87 %
17.03.2018 01:04 0,5 C 0,0 C -0,6 C 89 % 0 lf 1004,9 hPa 0,0 l/m 0 min 0 min 0 W/m 22,5 km/h (4 Bft) 91,49 %
17.03.2018 01:06 0,5 C 0,0 C -0,6 C 89 % 0 lf 1004,9 hPa 0,0 l/m 0 min 0 min 0 W/m 42,8 km/h (6 Bft) 93,62 %
17.03.2018 01:08 0,5 C 0,0 C -0,6 C 89 % 0 lf 1005,0 hPa 0,0 l/m 0 min 0 min 0 W/m 36,0 km/h (5 Bft) 93,62 %
17.03.2018 01:10 0,5 C 0,0 C -0,6 C 89 % 0 lf 1005,0 hPa 0,0 l/m 0 min 0 min 0 W/m 40,6 km/h (6 Bft) 91,49 %
17.03.2018 01:12 0,5 C 0,0 C -0,6 C 89 % 0 lf 1005,0 hPa 0,0 l/m 0 min 0 min 0 W/m 31,5 km/h (5 Bft) 93,62 %
17.03.2018 01:14 0,5 C 0,0 C -0,6 C 89 % 0 lf 1005,0 hPa 0,0 l/m 0 min 0 min 0 W/m 38,3 km/h (5 Bft) 91,49 %
17.03.2018 01:16 0,5 C 0,0 C -0,6 C 89 % 0 lf 1005,1 hPa 0,0 l/m 0 min 0 min 0 W/m 29,3 km/h (5 Bft) 93,48 %
17.03.2018 01:18 0,5 C 0,0 C -0,6 C 89 % 0 lf 1005,1 hPa 0,0 l/m 0 min 0 min 0 W/m 22,5 km/h (4 Bft) 89,36 %
17.03.2018 01:20 0,5 C 0,0 C -0,6 C 89 % 0 lf 1005,0 hPa 0,0 l/m 0 min 0 min 0 W/m 33,8 km/h (5 Bft) 93,33 %
17.03.2018 01:22 0,4 C 0,0 C -0,6 C 89 % 0 lf 1005,0 hPa 0,0 l/m 0 min 0 min 0 W/m 38,3 km/h (5 Bft) 94,29 %
17.03.2018 01:24 0,4 C 0,0 C -1,1 C 89 % 0 lf 1005,1 hPa 0,0 l/m 0 min 0 min 0 W/m 31,5 km/h (5 Bft) 91,49 %
17.03.2018 01:26 0,4 C 0,0 C -1,1 C 89 % 0 lf 1005,0 hPa 0,0 l/m 0 min 0 min 0 W/m 38,3 km/h (5 Bft) 93,62 %
17.03.2018 01:28 0,4 C 0,0 C -0,6 C 89 % 0 lf 1005,1 hPa 0,0 l/m 0 min 0 min 0 W/m 36,0 km/h (5 Bft) 91,30 %
17.03.2018 01:30 0,4 C 0,0 C -0,6 C 89 % 0 lf 1005,2 hPa 0,0 l/m 0 min 0 min 0 W/m 29,3 km/h (5 Bft) 89,36 %
17.03.2018 01:32 0,4 C 0,0 C -0,6 C 89 % 0 lf 1005,1 hPa 0,0 l/m 0 min 0 min 0 W/m 24,8 km/h (4 Bft) 91,49 %
17.03.2018 01:34 0,4 C 0,0 C -0,6 C 89 % 0 lf 1005,0 hPa 0,0 l/m 0 min 0 min 0 W/m 27,0 km/h (4 Bft) 93,62 %
17.03.2018 01:36 0,4 C 0,0 C -0,6 C 89 % 0 lf 1005,0 hPa 0,0 l/m 0 min 0 min 0 W/m 31,5 km/h (5 Bft) 95,74 %
17.03.2018 01:38 0,4 C 0,0 C -1,1 C 89 % 0 lf 1005,0 hPa 0,0 l/m 0 min 0 min 0 W/m 29,3 km/h (5 Bft) 89,36 %
17.03.2018 01:40 0,4 C 0,0 C -1,1 C 89 % 0 lf 1004,9 hPa 0,0 l/m 0 min 0 min 0 W/m 38,3 km/h (5 Bft) 95,65 %
17.03.2018 01:42 0,4 C 0,0 C -0,6 C 89 % 0 lf 1004,8 hPa 0,0 l/m 0 min 0 min 0 W/m 31,5 km/h (5 Bft) 95,74 %
17.03.2018 01:44 0,4 C 0,0 C -1,1 C 89 % 0 lf 1004,8 hPa 0,0 l/m 0 min 0 min 0 W/m 33,8 km/h (5 Bft) 97,87 %
17.03.2018 01:46 0,3 C 0,0 C -1,1 C 89 % 0 lf 1004,8 hPa 0,0 l/m 0 min 0 min 0 W/m 29,3 km/h (5 Bft) 97,87 %
17.03.2018 01:48 0,3 C 0,0 C -1,1 C 89 % 0 lf 1004,8 hPa 0,0 l/m 0 min 0 min 0 W/m 36,0 km/h (5 Bft) 97,87 %
17.03.2018 01:50 0,3 C 0,0 C -1,1 C 89 % 0 lf 1004,9 hPa 0,0 l/m 0 min 0 min 0 W/m 36,0 km/h (5 Bft) 97,87 %
17.03.2018 01:52 0,3 C 0,0 C -1,1 C 89 % 0 lf 1004,9 hPa 0,0 l/m 0 min 0 min 0 W/m 29,3 km/h (5 Bft) 97,83 %
17.03.2018 01:54 0,3 C 0,0 C -1,1 C 89 % 0 lf 1004,9 hPa 0,0 l/m 0 min 0 min 0 W/m 22,5 km/h (4 Bft) 93,62 %
17.03.2018 01:56 0,3 C 0,0 C -1,1 C 89 % 0 lf 1004,9 hPa 0,0 l/m 0 min 0 min 0 W/m 36,0 km/h (5 Bft) 97,87 %
17.03.2018 01:58 0,3 C 0,0 C -1,1 C 89 % 0 lf 1004,9 hPa 0,0 l/m 0 min 0 min 0 W/m 42,8 km/h (6 Bft) 95,74 %
17.03.2018 02:00 0,2 C 0,0 C -1,1 C 89 % 0 lf 1005,0 hPa 0,0 l/m 0 min 0 min 0 W/m 49,6 km/h (6 Bft) 97,87 %
17.03.2018 02:02 0,2 C 0,0 C -1,1 C 89 % 0 lf 1005,0 hPa 0,0 l/m 0 min 0 min 0 W/m 40,6 km/h (6 Bft) 97,87 %
17.03.2018 02:04 0,2 C 0,0 C -1,1 C 89 % 0 lf 1005,0 hPa 0,0 l/m 0 min 0 min 0 W/m 36,0 km/h (5 Bft) 97,83 %
17.03.2018 02:08 0,2 C 0,0 C -1,1 C 89 % 0 lf 1005,1 hPa 0,0 l/m 0 min 0 min 0 W/m 38,3 km/h (5 Bft) 97,89 %
17.03.2018 02:10 0,2 C 0,0 C -1,1 C 89 % 0 lf 1005,1 hPa 0,0 l/m 0 min 0 min 0 W/m 36,0 km/h (5 Bft) 95,74 %
17.03.2018 02:12 0,2 C 0,0 C -1,1 C 89 % 0 lf 1004,9 hPa 0,0 l/m 0 min 0 min 0 W/m 33,8 km/h (5 Bft) 95,74 %
17.03.2018 02:14 0,2 C 0,0 C -1,1 C 89 % 0 lf 1005,0 hPa 0,0 l/m 0 min 0 min 0 W/m 36,0 km/h (5 Bft) 97,83 %
17.03.2018 02:16 0,1 C 0,0 C -1,1 C 89 % 0 lf 1005,0 hPa 0,0 l/m 0 min 0 min 0 W/m 36,0 km/h (5 Bft) 100,00 %
17.03.2018 02:18 0,1 C 0,0 C -1,1 C 89 % 0 lf 1005,0 hPa 0,0 l/m 0 min 0 min 0 W/m 33,8 km/h (5 Bft) 95,74 %
17.03.2018 02:20 0,1 C 0,0 C -1,1 C 89 % 0 lf 1005,0 hPa 0,0 l/m 0 min 0 min 0 W/m 40,6 km/h (6 Bft) 100,00 %
17.03.2018 02:22 0,1 C 0,0 C -1,1 C 89 % 0 lf 1004,9 hPa 0,0 l/m 0 min 0 min 0 W/m 33,8 km/h (5 Bft) 97,87 %
17.03.2018 02:24 0,1 C 0,0 C -1,1 C 89 % 0 lf 1005,0 hPa 0,0 l/m 0 min 0 min 0 W/m 45,1 km/h (6 Bft) 100,00 %
17.03.2018 02:26 0,1 C 0,0 C -1,1 C 89 % 0 lf 1005,0 hPa 0,0 l/m 0 min 0 min 0 W/m 38,3 km/h (5 Bft) 97,83 %
17.03.2018 02:28 0,0 C 0,0 C -1,1 C 89 % 0 lf 1005,0 hPa 0,0 l/m 0 min 0 min 0 W/m 24,8 km/h (4 Bft) 91,49 %
17.03.2018 02:30 0,0 C 0,0 C -1,1 C 89 % 0 lf 1005,1 hPa 0,0 l/m 0 min 0 min 0 W/m 40,6 km/h (6 Bft) 97,87 %
17.03.2018 02:32 0,0 C 0,0 C -1,1 C 89 % 0 lf 1004,9 hPa 0,0 l/m 0 min 0 min 0 W/m 40,6 km/h (6 Bft) 95,74 %
17.03.2018 02:34 0,0 C 0,0 C -1,1 C 89 % 0 lf 1004,9 hPa 0,0 l/m 0 min 0 min 0 W/m 31,5 km/h (5 Bft) 97,87 %
17.03.2018 02:36 0,0 C 0,0 C -1,1 C 89 % 0 lf 1004,9 hPa 0,0 l/m 0 min 0 min 0 W/m 36,0 km/h (5 Bft) 95,74 %
17.03.2018 02:38 0,0 C 0,0 C -1,1 C 89 % 0 lf 1004,9 hPa 0,0 l/m 0 min 0 min 0 W/m 40,6 km/h (6 Bft) 95,65 %
17.03.2018 02:40 0,0 C 0,0 C -1,1 C 89 % 0 lf 1004,9 hPa 0,0 l/m 0 min 0 min 0 W/m 33,8 km/h (5 Bft) 97,87 %
17.03.2018 02:42 0,0 C 0,0 C -1,1 C 89 % 0 lf 1004,8 hPa 0,0 l/m 0 min 0 min 0 W/m 24,8 km/h (4 Bft) 95,74 %
17.03.2018 02:44 0,0 C 0,0 C -1,1 C 89 % 0 lf 1004,8 hPa 0,0 l/m 0 min 0 min 0 W/m 33,8 km/h (5 Bft) 93,62 %
17.03.2018 02:46 0,0 C 0,0 C -1,1 C 89 % 0 lf 1004,8 hPa 0,0 l/m 0 min 0 min 0 W/m 40,6 km/h (6 Bft) 97,92 %
17.03.2018 02:48 0,0 C 0,0 C -1,1 C 89 % 0 lf 1004,7 hPa 0,0 l/m 0 min 0 min 0 W/m 36,0 km/h (5 Bft) 97,87 %
17.03.2018 02:50 -0,1 C 0,0 C -1,1 C 89 % 0 lf 1004,7 hPa 0,0 l/m 0 min 0 min 0 W/m 51,8 km/h (7 Bft) 97,83 %
17.03.2018 02:52 -0,1 C 0,0 C -1,1 C 89 % 0 lf 1004,7 hPa 0,0 l/m 0 min 0 min 0 W/m 40,6 km/h (6 Bft) 95,74 %
17.03.2018 02:54 -0,1 C 0,0 C -1,1 C 89 % 0 lf 1004,6 hPa 0,0 l/m 0 min 0 min 0 W/m 36,0 km/h (5 Bft) 93,62 %
17.03.2018 02:56 -0,1 C -0,6 C -1,1 C 89 % 0 lf 1004,7 hPa 0,0 l/m 0 min 0 min 0 W/m 38,3 km/h (5 Bft) 93,62 %
17.03.2018 02:58 -0,1 C -0,6 C -1,1 C 89 % 0 lf 1004,6 hPa 0,0 l/m 0 min 0 min 0 W/m 47,3 km/h (6 Bft) 95,74 %
17.03.2018 03:00 -0,2 C -0,6 C -1,1 C 89 % 0 lf 1004,6 hPa 0,0 l/m 0 min 0 min 0 W/m 40,6 km/h (6 Bft) 93,62 %
17.03.2018 03:02 -0,2 C -0,6 C -1,1 C 89 % 0 lf 1004,6 hPa 0,0 l/m 0 min 0 min 0 W/m 31,5 km/h (5 Bft) 95,65 %
17.03.2018 03:04 -0,2 C -0,6 C -1,1 C 89 % 0 lf 1004,5 hPa 0,0 l/m 0 min 0 min 0 W/m 33,8 km/h (5 Bft) 97,87 %
17.03.2018 03:08 -0,2 C -0,6 C -1,1 C 89 % 0 lf 1004,7 hPa 0,0 l/m 0 min 0 min 0 W/m 24,8 km/h (4 Bft) 95,74 %
17.03.2018 03:10 -0,3 C -0,6 C -1,1 C 89 % 0 lf 1004,7 hPa 0,0 l/m 0 min 0 min 0 W/m 24,8 km/h (4 Bft) 93,62 %
17.03.2018 03:12 -0,3 C -0,6 C -1,1 C 89 % 0 lf 1004,7 hPa 0,0 l/m 0 min 0 min 0 W/m 40,6 km/h (6 Bft) 91,30 %
17.03.2018 03:14 -0,3 C -0,6 C -1,1 C 89 % 0 lf 1004,7 hPa 0,0 l/m 0 min 0 min 0 W/m 38,3 km/h (5 Bft) 91,49 %
17.03.2018 03:16 -0,3 C -0,6 C -1,1 C 89 % 0 lf 1004,6 hPa 0,0 l/m 0 min 0 min 0 W/m 56,3 km/h (7 Bft) 93,62 %
17.03.2018 03:18 -0,3 C -0,6 C -1,1 C 89 % 0 lf 1004,6 hPa 0,0 l/m 0 min 0 min 0 W/m 40,6 km/h (6 Bft) 93,62 %
17.03.2018 03:20 -0,3 C -0,6 C -1,1 C 89 % 0 lf 1004,5 hPa 0,0 l/m 0 min 0 min 0 W/m 36,0 km/h (5 Bft) 91,49 %
17.03.2018 03:22 -0,3 C -0,6 C -1,1 C 89 % 0 lf 1004,6 hPa 0,0 l/m 0 min 0 min 0 W/m 33,8 km/h (5 Bft) 89,36 %
17.03.2018 03:24 -0,4 C -0,6 C -1,1 C 89 % 0 lf 1004,5 hPa 0,0 l/m 0 min 0 min 0 W/m 29,3 km/h (5 Bft) 95,74 %
17.03.2018 03:26 -0,4 C -0,6 C -1,1 C 89 % 0 lf 1004,5 hPa 0,0 l/m 0 min 0 min 0 W/m 38,3 km/h (5 Bft) 95,65 %
17.03.2018 03:28 -0,4 C -0,6 C -1,1 C 89 % 0 lf 1004,5 hPa 0,0 l/m 0 min 0 min 0 W/m 29,3 km/h (5 Bft) 97,87 %
17.03.2018 03:30 -0,4 C -0,6 C -1,1 C 89 % 0 lf 1004,6 hPa 0,0 l/m 0 min 0 min 0 W/m 33,8 km/h (5 Bft) 95,74 %
17.03.2018 03:32 -0,4 C -0,6 C -1,1 C 89 % 0 lf 1004,6 hPa 0,0 l/m 0 min 0 min 0 W/m 36,0 km/h (5 Bft) 97,87 %
17.03.2018 03:34 -0,4 C -0,6 C -1,1 C 89 % 0 lf 1004,6 hPa 0,0 l/m 0 min 0 min 0 W/m 40,6 km/h (6 Bft) 93,62 %
17.03.2018 03:36 -0,5 C -0,6 C -1,1 C 89 % 0 lf 1004,7 hPa 0,0 l/m 0 min 0 min 0 W/m 51,8 km/h (7 Bft) 95,65 %
17.03.2018 03:38 -0,5 C -0,6 C -1,1 C 89 % 0 lf 1004,6 hPa 0,0 l/m 0 min 0 min 0 W/m 22,5 km/h (4 Bft) 97,87 %
17.03.2018 03:40 -0,5 C -0,6 C -1,1 C 89 % 0 lf 1004,6 hPa 0,0 l/m 0 min 0 min 0 W/m 33,8 km/h (5 Bft) 97,87 %
17.03.2018 03:42 -0,5 C -0,6 C -1,1 C 89 % 0 lf 1004,6 hPa 0,0 l/m 0 min 0 min 0 W/m 33,8 km/h (5 Bft) 95,74 %
17.03.2018 03:44 -0,5 C -0,6 C -1,1 C 89 % 0 lf 1004,5 hPa 0,0 l/m 0 min 0 min 0 W/m 36,0 km/h (5 Bft) 97,87 %
17.03.2018 03:46 -0,5 C -0,6 C -1,1 C 89 % 0 lf 1004,6 hPa 0,0 l/m 0 min 0 min 0 W/m 27,0 km/h (4 Bft) 97,87 %
17.03.2018 03:48 -0,6 C -0,6 C -1,1 C 89 % 0 lf 1004,6 hPa 0,0 l/m 0 min 0 min 0 W/m 36,0 km/h (5 Bft) 95,65 %
17.03.2018 03:50 -0,6 C -0,6 C -1,1 C 89 % 0 lf 1004,8 hPa 0,0 l/m 0 min 0 min 0 W/m 31,5 km/h (5 Bft) 97,87 %
17.03.2018 03:52 -0,6 C -0,6 C -1,1 C 89 % 0 lf 1004,8 hPa 0,0 l/m 0 min 0 min 0 W/m 33,8 km/h (5 Bft) 97,87 %
17.03.2018 03:54 -0,6 C -1,1 C -1,7 C 89 % 0 lf 1004,9 hPa 0,0 l/m 0 min 0 min 0 W/m 40,6 km/h (6 Bft) 95,74 %
17.03.2018 03:56 -0,6 C -1,1 C -1,7 C 89 % 0 lf 1004,8 hPa 0,0 l/m 0 min 0 min 0 W/m 33,8 km/h (5 Bft) 95,74 %
17.03.2018 03:58 -0,6 C -1,1 C -1,7 C 89 % 0 lf 1004,8 hPa 0,0 l/m 0 min 0 min 0 W/m 36,0 km/h (5 Bft) 95,74 %
17.03.2018 04:00 -0,6 C -1,1 C -1,7 C 89 % 0 lf 1004,9 hPa 0,0 l/m 0 min 0 min 0 W/m 22,5 km/h (4 Bft) 97,83 %
17.03.2018 04:05 -0,7 C -1,1 C -1,7 C 90 % 0 lf 1004,9 hPa 0,0 l/m 0 min 0 min 0 W/m 31,5 km/h (5 Bft) 98,41 %
17.03.2018 04:06 -0,7 C -1,1 C -1,7 C 90 % 0 lf 1004,9 hPa 0,0 l/m 0 min 0 min 0 W/m 20,3 km/h (4 Bft) 95,83 %
17.03.2018 04:08 -0,7 C -1,1 C -1,7 C 90 % 0 lf 1004,8 hPa 0,0 l/m 0 min 0 min 0 W/m 29,3 km/h (5 Bft) 100,00 %
17.03.2018 04:10 -0,7 C -1,1 C -1,7 C 90 % 0 lf 1004,8 hPa 0,0 l/m 0 min 0 min 0 W/m 33,8 km/h (5 Bft) 94,44 %
17.03.2018 04:12 -0,8 C -1,1 C -2,2 C 90 % 0 lf 1004,8 hPa 0,0 l/m 0 min 0 min 0 W/m 42,8 km/h (6 Bft) 100,00 %
17.03.2018 04:14 -0,8 C -1,1 C -2,2 C 90 % 0 lf 1004,8 hPa 0,0 l/m 0 min 0 min 0 W/m 29,3 km/h (5 Bft) 95,74 %
17.03.2018 04:16 -0,8 C -1,1 C -2,2 C 90 % 0 lf 1004,7 hPa 0,0 l/m 0 min 0 min 0 W/m 22,5 km/h (4 Bft) 100,00 %
17.03.2018 04:18 -0,8 C -1,1 C -2,2 C 91 % 0 lf 1004,7 hPa 0,0 l/m 0 min 0 min 0 W/m 36,0 km/h (5 Bft) 100,00 %
17.03.2018 04:20 -0,9 C -1,1 C -2,2 C 91 % 0 lf 1004,6 hPa 0,0 l/m 0 min 0 min 0 W/m 24,8 km/h (4 Bft) 97,87 %
17.03.2018 04:22 -0,9 C -1,1 C -2,2 C 91 % 0 lf 1004,7 hPa 0,0 l/m 0 min 0 min 0 W/m 36,0 km/h (5 Bft) 93,48 %
17.03.2018 04:24 -0,9 C -1,1 C -2,2 C 91 % 0 lf 1004,6 hPa 0,0 l/m 0 min 0 min 0 W/m 36,0 km/h (5 Bft) 100,00 %
17.03.2018 04:26 -1,0 C -1,7 C -2,2 C 91 % 0 lf 1004,5 hPa 0,0 l/m 0 min 0 min 0 W/m 40,6 km/h (6 Bft) 95,74 %
17.03.2018 04:28 -1,0 C -1,7 C -2,2 C 91 % 0 lf 1004,6 hPa 0,0 l/m 0 min 0 min 0 W/m 29,3 km/h (5 Bft) 100,00 %
17.03.2018 04:30 -1,1 C -1,7 C -2,2 C 91 % 0 lf 1004,7 hPa 0,0 l/m 0 min 0 min 0 W/m 29,3 km/h (5 Bft) 100,00 %
17.03.2018 04:32 -1,1 C -1,7 C -2,2 C 91 % 1 lf 1004,7 hPa 0,0 l/m 0 min 0 min 0 W/m 24,8 km/h (4 Bft) 97,87 %
17.03.2018 04:34 -1,1 C -1,7 C -2,2 C 91 % 1 lf 1004,7 hPa 0,0 l/m 0 min 0 min 0 W/m 29,3 km/h (5 Bft) 97,83 %
17.03.2018 04:36 -1,1 C -1,7 C -2,2 C 91 % 0 lf 1004,6 hPa 0,0 l/m 0 min 0 min 0 W/m 47,3 km/h (6 Bft) 97,87 %
17.03.2018 04:38 -1,1 C -1,7 C -2,2 C 91 % 0 lf 1004,6 hPa 0,0 l/m 0 min 0 min 0 W/m 29,3 km/h (5 Bft) 97,87 %
17.03.2018 04:40 -1,1 C -1,7 C -2,2 C 91 % 1 lf 1004,6 hPa 0,0 l/m 0 min 0 min 0 W/m 22,5 km/h (4 Bft) 100,00 %
17.03.2018 04:42 -1,2 C -1,7 C -2,2 C 92 % 0 lf 1004,7 hPa 0,0 l/m 0 min 0 min 0 W/m 27,0 km/h (4 Bft) 97,87 %
17.03.2018 04:44 -1,2 C -1,7 C -2,2 C 92 % 0 lf 1004,7 hPa 0,0 l/m 0 min 0 min 0 W/m 27,0 km/h (4 Bft) 91,49 %
17.03.2018 04:46 -1,2 C -1,7 C -2,2 C 92 % 0 lf 1004,7 hPa 0,0 l/m 0 min 0 min 0 W/m 45,1 km/h (6 Bft) 100,00 %
17.03.2018 04:48 -1,2 C -1,7 C -2,2 C 92 % 0 lf 1004,7 hPa 0,0 l/m 0 min 0 min 0 W/m 38,3 km/h (5 Bft) 97,87 %
17.03.2018 04:50 -1,2 C -1,7 C -2,2 C 92 % 0 lf 1004,6 hPa 0,0 l/m 0 min 0 min 0 W/m 27,0 km/h (4 Bft) 100,00 %
17.03.2018 04:52 -1,3 C -1,7 C -2,2 C 92 % 0 lf 1004,5 hPa 0,0 l/m 0 min 0 min 0 W/m 27,0 km/h (4 Bft) 97,87 %
17.03.2018 04:54 -1,3 C -1,7 C -2,2 C 92 % 0 lf 1004,6 hPa 0,0 l/m 0 min 0 min 0 W/m 40,6 km/h (6 Bft) 100,00 %
17.03.2018 04:56 -1,3 C -1,7 C -2,2 C 92 % 0 lf 1004,5 hPa 0,0 l/m 0 min 0 min 0 W/m 40,6 km/h (6 Bft) 100,00 %
17.03.2018 04:58 -1,3 C -1,7 C -2,2 C 92 % 0 lf 1004,7 hPa 0,0 l/m 0 min 0 min 0 W/m 31,5 km/h (5 Bft) 100,00 %
17.03.2018 05:00 -1,3 C -1,7 C -2,2 C 92 % 0 lf 1004,6 hPa 0,0 l/m 0 min 0 min 0 W/m 36,0 km/h (5 Bft) 100,00 %
17.03.2018 05:02 -1,3 C -1,7 C -2,2 C 92 % 0 lf 1004,6 hPa 0,0 l/m 0 min 0 min 0 W/m 33,8 km/h (5 Bft) 97,87 %
17.03.2018 05:04 -1,3 C -1,7 C -2,2 C 92 % 0 lf 1004,6 hPa 0,0 l/m 0 min 0 min 0 W/m 22,5 km/h (4 Bft) 100,00 %
17.03.2018 05:06 -1,3 C -1,1 C -2,2 C 92 % 0 lf 1004,6 hPa 0,0 l/m 0 min 0 min 0 W/m 31,5 km/h (5 Bft) 100,00 %
17.03.2018 05:08 -1,3 C -1,7 C -2,2 C 92 % 0 lf 1004,6 hPa 0,0 l/m 0 min 0 min 0 W/m 33,8 km/h (5 Bft) 100,00 %
17.03.2018 05:10 -1,3 C -1,1 C -2,2 C 92 % 0 lf 1004,5 hPa 0,0 l/m 0 min 0 min 0 W/m 38,3 km/h (5 Bft) 97,83 %
17.03.2018 05:12 -1,3 C -1,1 C -2,2 C 92 % 0 lf 1004,5 hPa 0,0 l/m 0 min 0 min 0 W/m 31,5 km/h (5 Bft) 100,00 %
17.03.2018 05:14 -1,3 C -1,7 C -2,2 C 92 % 0 lf 1004,4 hPa 0,0 l/m 0 min 0 min 0 W/m 38,3 km/h (5 Bft) 100,00 %
17.03.2018 05:16 -1,3 C -1,7 C -2,2 C 92 % 0 lf 1004,5 hPa 0,0 l/m 0 min 0 min 0 W/m 31,5 km/h (5 Bft) 97,87 %
17.03.2018 05:18 -1,3 C -1,7 C -2,2 C 91 % 0 lf 1004,5 hPa 0,0 l/m 0 min 0 min 0 W/m 27,0 km/h (4 Bft) 97,87 %
17.03.2018 05:20 -1,3 C -1,1 C -2,2 C 91 % 0 lf 1004,4 hPa 0,0 l/m 0 min 0 min 0 W/m 27,0 km/h (4 Bft) 95,74 %
17.03.2018 05:22 -1,3 C -1,1 C -2,2 C 91 % 0 lf 1004,4 hPa 0,0 l/m 0 min 0 min 0 W/m 22,5 km/h (4 Bft) 95,65 %
17.03.2018 05:24 -1,3 C -1,1 C -2,2 C 91 % 0 lf 1004,4 hPa 0,0 l/m 0 min 0 min 0 W/m 40,6 km/h (6 Bft) 97,87 %
17.03.2018 05:26 -1,3 C -1,1 C -2,2 C 91 % 0 lf 1004,3 hPa 0,0 l/m 0 min 0 min 0 W/m 33,8 km/h (5 Bft) 93,62 %
17.03.2018 05:28 -1,3 C -1,1 C -2,2 C 91 % 0 lf 1004,4 hPa 0,0 l/m 0 min 0 min 0 W/m 29,3 km/h (5 Bft) 93,62 %
17.03.2018 05:30 -1,3 C -1,1 C -2,2 C 91 % 0 lf 1004,4 hPa 0,0 l/m 0 min 0 min 0 W/m 22,5 km/h (4 Bft) 93,62 %
17.03.2018 05:32 -1,3 C -1,1 C -2,2 C 91 % 0 lf 1004,3 hPa 0,0 l/m 0 min 0 min 0 W/m 36,0 km/h (5 Bft) 97,78 %
17.03.2018 05:34 -1,3 C -1,1 C -2,2 C 91 % 0 lf 1004,4 hPa 0,0 l/m 0 min 0 min 0 W/m 42,8 km/h (6 Bft) 95,74 %
17.03.2018 05:35 -1,3 C -1,1 C -2,2 C 91 % 0 lf 1004,3 hPa 0,0 l/m 0 min 0 min 0 W/m 42,8 km/h (6 Bft) 98,25 %
17.03.2018 05:40 -1,3 C -1,7 C -2,2 C 91 % 0 lf 1004,4 hPa 0,0 l/m 0 min 0 min 0 W/m 49,6 km/h (6 Bft) 100,00 %
17.03.2018 05:42 -1,3 C -1,7 C -2,2 C 91 % 0 lf 1004,5 hPa 0,0 l/m 0 min 0 min 0 W/m 54,1 km/h (7 Bft) 95,74 %
17.03.2018 05:44 -1,3 C -1,7 C -2,2 C 91 % 0 lf 1004,5 hPa 0,0 l/m 0 min 0 min 0 W/m 36,0 km/h (5 Bft) 97,87 %
17.03.2018 05:46 -1,3 C -1,7 C -2,2 C 91 % 0 lf 1004,5 hPa 0,0 l/m 0 min 0 min 0 W/m 38,3 km/h (5 Bft) 95,65 %
17.03.2018 05:48 -1,3 C -1,7 C -2,2 C 90 % 0 lf 1004,4 hPa 0,0 l/m 0 min 0 min 0 W/m 51,8 km/h (7 Bft) 93,62 %
17.03.2018 05:50 -1,3 C -1,7 C -2,2 C 90 % 0 lf 1004,4 hPa 0,0 l/m 0 min 0 min 0 W/m 33,8 km/h (5 Bft) 93,22 %
17.03.2018 05:52 -1,4 C -1,7 C -2,2 C 90 % 0 lf 1004,4 hPa 0,0 l/m 0 min 0 min 0 W/m 36,0 km/h (5 Bft) 97,14 %
17.03.2018 05:54 -1,3 C -1,7 C -2,2 C 90 % 0 lf 1004,5 hPa 0,0 l/m 0 min 0 min 0 W/m 24,8 km/h (4 Bft) 91,49 %
17.03.2018 05:56 -1,4 C -1,7 C -2,2 C 90 % 0 lf 1004,6 hPa 0,0 l/m 0 min 0 min 0 W/m 29,3 km/h (5 Bft) 91,49 %
17.03.2018 05:58 -1,4 C -1,7 C -2,2 C 90 % 0 lf 1004,5 hPa 0,0 l/m 0 min 0 min 0 W/m 49,6 km/h (6 Bft) 93,48 %
17.03.2018 06:00 -1,4 C -1,7 C -2,2 C 90 % 0 lf 1004,5 hPa 0,0 l/m 0 min 0 min 0 W/m 42,8 km/h (6 Bft) 96,23 %
17.03.2018 06:02 -1,4 C -1,7 C -2,2 C 90 % 0 lf 1004,5 hPa 0,0 l/m 0 min 0 min 0 W/m 49,6 km/h (6 Bft) 90,00 %
17.03.2018 06:04 -1,4 C -1,7 C -2,2 C 90 % 0 lf 1004,5 hPa 0,0 l/m 0 min 0 min 0 W/m 27,0 km/h (4 Bft) 86,00 %
17.03.2018 06:07 -1,4 C -1,7 C -2,2 C 90 % 0 lf 1004,4 hPa 0,0 l/m 0 min 0 min 0 W/m 29,3 km/h (5 Bft) 93,10 %
17.03.2018 06:08 -1,4 C -1,7 C -2,2 C 90 % 0 lf 1004,4 hPa 0,0 l/m 0 min 0 min 0 W/m 27,0 km/h (4 Bft) 87,50 %
17.03.2018 06:10 -1,4 C -1,7 C -2,2 C 90 % 0 lf 1004,5 hPa 0,0 l/m 0 min 0 min 0 W/m 31,5 km/h (5 Bft) 91,30 %
17.03.2018 06:12 -1,4 C -1,7 C -2,8 C 90 % 0 lf 1004,4 hPa 0,0 l/m 0 min 0 min 0 W/m 42,8 km/h (6 Bft) 93,62 %
17.03.2018 06:14 -1,4 C -1,7 C -2,8 C 90 % 0 lf 1004,4 hPa 0,0 l/m 0 min 0 min 0 W/m 33,8 km/h (5 Bft) 93,62 %
17.03.2018 06:16 -1,4 C -1,7 C -2,8 C 90 % 0 lf 1004,4 hPa 0,0 l/m 0 min 0 min 0 W/m 27,0 km/h (4 Bft) 93,62 %
17.03.2018 06:18 -1,5 C -1,7 C -2,8 C 90 % 0 lf 1004,5 hPa 0,0 l/m 0 min 0 min 0 W/m 38,3 km/h (5 Bft) 95,74 %
17.03.2018 06:20 -1,5 C -1,7 C -2,8 C 90 % 0 lf 1004,4 hPa 0,0 l/m 0 min 0 min 0 W/m 29,3 km/h (5 Bft) 94,83 %
17.03.2018 06:22 -1,5 C -1,7 C -2,8 C 90 % 0 lf 1004,5 hPa 0,0 l/m 0 min 0 min 0 W/m 33,8 km/h (5 Bft) 94,29 %
17.03.2018 06:24 -1,6 C -1,7 C -2,8 C 90 % 0 lf 1004,3 hPa 0,0 l/m 0 min 0 min 0 W/m 38,3 km/h (5 Bft) 95,74 %
17.03.2018 06:26 -1,6 C -1,7 C -2,8 C 90 % 0 lf 1004,4 hPa 0,0 l/m 0 min 0 min 0 W/m 40,6 km/h (6 Bft) 93,62 %
17.03.2018 06:28 -1,6 C -1,7 C -2,8 C 90 % 0 lf 1004,3 hPa 0,0 l/m 0 min 0 min 0 W/m 42,8 km/h (6 Bft) 91,49 %
17.03.2018 06:30 -1,6 C -2,2 C -2,8 C 90 % 0 lf 1004,3 hPa 0,0 l/m 0 min 0 min 0 W/m 40,6 km/h (6 Bft) 97,87 %
17.03.2018 06:32 -1,7 C -1,7 C -2,8 C 90 % 0 lf 1004,3 hPa 0,0 l/m 0 min 0 min 0 W/m 27,0 km/h (4 Bft) 93,62 %
17.03.2018 06:34 -1,7 C -2,2 C -2,8 C 90 % 0 lf 1004,4 hPa 0,0 l/m 0 min 0 min 0 W/m 36,0 km/h (5 Bft) 93,48 %
17.03.2018 06:36 -1,7 C -2,2 C -2,8 C 90 % 0 lf 1004,4 hPa 0,0 l/m 0 min 0 min 0 W/m 40,6 km/h (6 Bft) 97,87 %
17.03.2018 06:38 -1,7 C -2,2 C -2,8 C 90 % 0 lf 1004,4 hPa 0,0 l/m 0 min 0 min 0 W/m 36,0 km/h (5 Bft) 95,74 %
17.03.2018 06:40 -1,8 C -2,2 C -2,8 C 90 % 0 lf 1004,3 hPa 0,0 l/m 0 min 0 min 0 W/m 40,6 km/h (6 Bft) 97,87 %
17.03.2018 06:42 -1,8 C -2,2 C -2,8 C 90 % 0 lf 1004,3 hPa 0,0 l/m 0 min 0 min 0 W/m 29,3 km/h (5 Bft) 93,62 %
17.03.2018 06:44 -1,8 C -1,7 C -2,8 C 90 % 0 lf 1004,3 hPa 0,0 l/m 0 min 0 min 0 W/m 33,8 km/h (5 Bft) 95,74 %
17.03.2018 06:46 -1,8 C -1,7 C -2,8 C 90 % 0 lf 1004,3 hPa 0,0 l/m 0 min 0 min 0 W/m 33,8 km/h (5 Bft) 97,83 %
17.03.2018 06:48 -1,8 C -2,2 C -2,8 C 91 % 0 lf 1004,3 hPa 0,0 l/m 0 min 0 min 0 W/m 36,0 km/h (5 Bft) 97,87 %
17.03.2018 06:50 -1,8 C -1,7 C -2,8 C 91 % 0 lf 1004,3 hPa 0,0 l/m 0 min 0 min 0 W/m 31,5 km/h (5 Bft) 97,87 %
17.03.2018 06:52 -1,8 C -1,7 C -2,8 C 91 % 0 lf 1004,3 hPa 0,0 l/m 0 min 0 min 0 W/m 36,0 km/h (5 Bft) 97,87 %
17.03.2018 06:54 -1,8 C -1,7 C -2,8 C 91 % 0 lf 1004,3 hPa 0,0 l/m 0 min 0 min 3 W/m 36,0 km/h (5 Bft) 97,87 %
17.03.2018 06:56 -1,8 C -1,7 C -2,8 C 91 % 0 lf 1004,4 hPa 0,0 l/m 0 min 0 min 5 W/m 45,1 km/h (6 Bft) 97,83 %
17.03.2018 06:58 -1,8 C -1,7 C -2,8 C 91 % 0 lf 1004,4 hPa 0,0 l/m 0 min 0 min 5 W/m 38,3 km/h (5 Bft) 97,87 %
17.03.2018 07:00 -1,9 C -1,7 C -2,8 C 91 % 0 lf 1004,4 hPa 0,0 l/m 0 min 0 min 5 W/m 31,5 km/h (5 Bft) 97,87 %
17.03.2018 07:02 -1,9 C -1,7 C -2,8 C 91 % 0 lf 1004,4 hPa 0,2 l/m 0 min 0 min 5 W/m 38,3 km/h (5 Bft) 97,87 %
17.03.2018 07:04 -1,9 C -1,7 C -2,8 C 91 % 0 lf 1004,4 hPa 0,0 l/m 0 min 0 min 5 W/m 31,5 km/h (5 Bft) 95,74 %
17.03.2018 07:06 -1,9 C -1,7 C -2,8 C 90 % 0 lf 1004,4 hPa 0,0 l/m 0 min 0 min 5 W/m 33,8 km/h (5 Bft) 95,74 %
17.03.2018 07:08 -1,9 C -1,7 C -2,8 C 90 % 0 lf 1004,4 hPa 0,0 l/m 0 min 0 min 5 W/m 36,0 km/h (5 Bft) 96,23 %
17.03.2018 07:10 -1,9 C -1,7 C -2,8 C 90 % 0 lf 1004,5 hPa 0,0 l/m 0 min 0 min 5 W/m 42,8 km/h (6 Bft) 100,00 %
17.03.2018 07:12 -1,9 C -1,7 C -2,8 C 90 % 0 lf 1004,4 hPa 0,0 l/m 0 min 0 min 6 W/m 38,3 km/h (5 Bft) 97,87 %
17.03.2018 07:14 -1,9 C -1,7 C -2,8 C 90 % 0 lf 1004,4 hPa 0,0 l/m 0 min 0 min 7 W/m 40,6 km/h (6 Bft) 97,87 %
17.03.2018 07:16 -1,9 C -1,7 C -2,8 C 90 % 0 lf 1004,5 hPa 0,0 l/m 0 min 0 min 7 W/m 29,3 km/h (5 Bft) 95,74 %
17.03.2018 07:18 -1,9 C -1,7 C -2,8 C 90 % 0 lf 1004,4 hPa 0,0 l/m 0 min 0 min 7 W/m 36,0 km/h (5 Bft) 97,87 %
17.03.2018 07:20 -1,9 C -1,7 C -2,8 C 90 % 0 lf 1004,5 hPa 0,0 l/m 0 min 0 min 9 W/m 42,8 km/h (6 Bft) 100,00 %
17.03.2018 07:22 -1,9 C -1,7 C -2,8 C 90 % 0 lf 1004,5 hPa 0,0 l/m 0 min 0 min 11 W/m 47,3 km/h (6 Bft) 100,00 %
17.03.2018 07:24 -1,9 C -1,7 C -2,8 C 90 % 0 lf 1004,4 hPa 0,0 l/m 0 min 0 min 12 W/m 47,3 km/h (6 Bft) 100,00 %
17.03.2018 07:26 -1,9 C -1,7 C -2,8 C 90 % 0 lf 1004,5 hPa 0,0 l/m 0 min 0 min 12 W/m 36,0 km/h (5 Bft) 97,87 %
17.03.2018 07:28 -1,9 C -1,7 C -2,8 C 90 % 0 lf 1004,4 hPa 0,0 l/m 0 min 0 min 13 W/m 51,8 km/h (7 Bft) 95,74 %
17.03.2018 07:30 -1,9 C -1,7 C -2,8 C 90 % 0 lf 1004,5 hPa 0,0 l/m 0 min 0 min 14 W/m 42,8 km/h (6 Bft) 97,87 %
17.03.2018 07:32 -1,9 C -1,7 C -2,8 C 89 % 0 lf 1004,5 hPa 0,0 l/m 0 min 0 min 16 W/m 54,1 km/h (7 Bft) 100,00 %
17.03.2018 07:34 -1,9 C -1,7 C -2,8 C 89 % 0 lf 1004,5 hPa 0,0 l/m 0 min 0 min 17 W/m 40,6 km/h (6 Bft) 97,83 %
17.03.2018 07:36 -1,9 C -1,7 C -2,8 C 89 % 0 lf 1004,6 hPa 0,0 l/m 0 min 0 min 18 W/m 31,5 km/h (5 Bft) 100,00 %
17.03.2018 07:38 -1,9 C -1,7 C -2,8 C 89 % 0 lf 1004,5 hPa 0,0 l/m 0 min 0 min 19 W/m 40,6 km/h (6 Bft) 100,00 %
17.03.2018 07:40 -1,9 C -2,2 C -2,8 C 89 % 0 lf 1004,6 hPa 0,0 l/m 0 min 0 min 21 W/m 40,6 km/h (6 Bft) 100,00 %
17.03.2018 07:42 -1,9 C -2,2 C -2,8 C 89 % 0 lf 1004,6 hPa 0,0 l/m 0 min 0 min 23 W/m 40,6 km/h (6 Bft) 97,87 %
17.03.2018 07:44 -1,9 C -2,2 C -2,8 C 89 % 0 lf 1004,5 hPa 0,0 l/m 0 min 0 min 23 W/m 40,6 km/h (6 Bft) 95,65 %
17.03.2018 07:46 -2,0 C -2,2 C -2,8 C 89 % 0 lf 1004,4 hPa 0,0 l/m 0 min 0 min 23 W/m 36,0 km/h (5 Bft) 97,87 %
17.03.2018 07:48 -2,0 C -2,2 C -2,8 C 89 % 0 lf 1004,5 hPa 0,0 l/m 0 min 0 min 21 W/m 45,1 km/h (6 Bft) 100,00 %
17.03.2018 07:50 -2,0 C -2,2 C -2,8 C 89 % 0 lf 1004,4 hPa 0,0 l/m 0 min 0 min 21 W/m 36,0 km/h (5 Bft) 100,00 %
17.03.2018 07:52 -2,0 C -2,2 C -2,8 C 89 % 0 lf 1004,4 hPa 0,0 l/m 0 min 0 min 21 W/m 58,6 km/h (7 Bft) 97,87 %
17.03.2018 07:54 -2,1 C -2,2 C -2,8 C 89 % 0 lf 1004,4 hPa 0,0 l/m 0 min 0 min 20 W/m 45,1 km/h (6 Bft) 100,00 %
17.03.2018 07:56 -2,1 C -2,2 C -2,8 C 89 % 0 lf 1004,5 hPa 0,0 l/m 0 min 0 min 19 W/m 42,8 km/h (6 Bft) 100,00 %
17.03.2018 07:58 -2,1 C -2,2 C -2,8 C 89 % 0 lf 1004,5 hPa 0,0 l/m 0 min 0 min 18 W/m 40,6 km/h (6 Bft) 100,00 %
17.03.2018 08:00 -2,1 C -2,2 C -2,8 C 89 % 0 lf 1004,4 hPa 0,0 l/m 0 min 0 min 18 W/m 38,3 km/h (5 Bft) 100,00 %
17.03.2018 08:02 -2,2 C -2,2 C -2,8 C 89 % 0 lf 1004,4 hPa 0,0 l/m 0 min 0 min 19 W/m 24,8 km/h (4 Bft) 100,00 %
17.03.2018 08:04 -2,2 C -2,2 C -2,8 C 89 % 0 lf 1004,4 hPa 0,0 l/m 0 min 0 min 22 W/m 38,3 km/h (5 Bft) 100,00 %
17.03.2018 08:06 -2,2 C -2,2 C -2,8 C 89 % 0 lf 1004,4 hPa 0,0 l/m 0 min 0 min 25 W/m 27,0 km/h (4 Bft) 100,00 %
17.03.2018 08:08 -2,2 C -2,2 C -2,8 C 89 % 0 lf 1004,4 hPa 0,0 l/m 0 min 0 min 27 W/m 38,3 km/h (5 Bft) 95,65 %
17.03.2018 08:10 -2,2 C -2,2 C -2,8 C 89 % 0 lf 1004,5 hPa 0,2 l/m 0 min 0 min 28 W/m 33,8 km/h (5 Bft) 100,00 %
17.03.2018 08:12 -2,2 C -2,2 C -2,8 C 89 % 0 lf 1004,6 hPa 0,0 l/m 0 min 0 min 29 W/m 38,3 km/h (5 Bft) 100,00 %
17.03.2018 08:14 -2,2 C -2,2 C -2,8 C 89 % 0 lf 1004,7 hPa 0,0 l/m 0 min 0 min 30 W/m 36,0 km/h (5 Bft) 100,00 %
17.03.2018 08:16 -2,3 C -2,2 C -2,8 C 89 % 0 lf 1004,7 hPa 0,0 l/m 0 min 0 min 28 W/m 31,5 km/h (5 Bft) 91,49 %
17.03.2018 08:18 -2,3 C -2,2 C -2,8 C 90 % 0 lf 1004,7 hPa 0,0 l/m 0 min 0 min 28 W/m 31,5 km/h (5 Bft) 95,65 %
17.03.2018 08:20 -2,3 C -2,2 C -2,8 C 90 % 0 lf 1004,8 hPa 0,0 l/m 0 min 0 min 28 W/m 22,5 km/h (4 Bft) 95,74 %
17.03.2018 08:22 -2,3 C -2,2 C -2,8 C 90 % 0 lf 1004,7 hPa 0,0 l/m 0 min 0 min 29 W/m 36,0 km/h (5 Bft) 95,74 %
17.03.2018 08:24 -2,3 C -2,2 C -3,3 C 90 % 0 lf 1004,8 hPa 0,0 l/m 0 min 0 min 28 W/m 38,3 km/h (5 Bft) 95,74 %
17.03.2018 08:26 -2,3 C -2,2 C -2,8 C 89 % 0 lf 1004,7 hPa 0,0 l/m 0 min 0 min 28 W/m 38,3 km/h (5 Bft) 95,74 %
17.03.2018 08:28 -2,3 C -2,2 C -2,8 C 90 % 0 lf 1004,7 hPa 0,0 l/m 0 min 0 min 26 W/m 40,6 km/h (6 Bft) 97,87 %
17.03.2018 08:30 -2,4 C -2,2 C -3,3 C 90 % 0 lf 1004,7 hPa 0,0 l/m 0 min 0 min 28 W/m 33,8 km/h (5 Bft) 97,83 %
17.03.2018 08:32 -2,4 C -2,2 C -3,3 C 90 % 0 lf 1004,7 hPa 0,0 l/m 0 min 0 min 28 W/m 29,3 km/h (5 Bft) 93,62 %
17.03.2018 08:34 -2,4 C -2,2 C -3,3 C 90 % 0 lf 1004,7 hPa 0,0 l/m 0 min 0 min 31 W/m 49,6 km/h (6 Bft) 93,62 %
17.03.2018 08:36 -2,4 C -2,2 C -3,3 C 90 % 0 lf 1004,7 hPa 0,0 l/m 0 min 0 min 30 W/m 40,6 km/h (6 Bft) 93,62 %
17.03.2018 08:38 -2,4 C -2,2 C -3,3 C 90 % 0 lf 1004,7 hPa 0,0 l/m 0 min 0 min 26 W/m 38,3 km/h (5 Bft) 93,62 %
17.03.2018 08:40 -2,5 C -2,2 C -3,3 C 90 % 0 lf 1004,8 hPa 0,0 l/m 0 min 0 min 26 W/m 38,3 km/h (5 Bft) 91,49 %
17.03.2018 08:42 -2,5 C -2,8 C -3,3 C 90 % 0 lf 1004,8 hPa 0,0 l/m 0 min 0 min 29 W/m 40,6 km/h (6 Bft) 91,30 %
17.03.2018 08:44 -2,5 C -2,2 C -3,3 C 90 % 0 lf 1004,8 hPa 0,0 l/m 0 min 0 min 32 W/m 36,0 km/h (5 Bft) 91,49 %
17.03.2018 08:46 -2,6 C -2,2 C -3,3 C 90 % 0 lf 1004,7 hPa 0,0 l/m 0 min 0 min 36 W/m 33,8 km/h (5 Bft) 91,49 %
17.03.2018 08:48 -2,6 C -2,8 C -3,3 C 90 % 0 lf 1004,7 hPa 0,0 l/m 0 min 0 min 39 W/m 49,6 km/h (6 Bft) 91,49 %
17.03.2018 08:50 -2,6 C -2,2 C -3,3 C 90 % 0 lf 1004,7 hPa 0,0 l/m 0 min 0 min 42 W/m 31,5 km/h (5 Bft) 93,62 %
17.03.2018 08:52 -2,6 C -2,2 C -3,3 C 90 % 0 lf 1004,7 hPa 0,0 l/m 0 min 0 min 45 W/m 38,3 km/h (5 Bft) 91,49 %
17.03.2018 08:54 -2,6 C -2,2 C -3,3 C 90 % 0 lf 1004,7 hPa 0,0 l/m 0 min 0 min 46 W/m 40,6 km/h (6 Bft) 89,13 %
17.03.2018 08:56 -2,6 C -2,2 C -3,3 C 90 % 0 lf 1004,7 hPa 0,0 l/m 0 min 0 min 46 W/m 40,6 km/h (6 Bft) 93,62 %
17.03.2018 08:58 -2,6 C -2,2 C -3,3 C 90 % 0 lf 1004,7 hPa 0,0 l/m 0 min 0 min 43 W/m 31,5 km/h (5 Bft) 91,49 %
17.03.2018 09:00 -2,6 C -2,2 C -3,3 C 90 % 0 lf 1004,7 hPa 0,0 l/m 0 min 0 min 44 W/m 38,3 km/h (5 Bft) 93,62 %
17.03.2018 09:02 -2,6 C -2,2 C -3,3 C 90 % 0 lf 1004,7 hPa 0,0 l/m 0 min 0 min 46 W/m 31,5 km/h (5 Bft) 93,62 %
17.03.2018 09:04 -2,6 C -2,2 C -2,8 C 90 % 0 lf 1004,7 hPa 0,0 l/m 0 min 0 min 51 W/m 29,3 km/h (5 Bft) 97,87 %
17.03.2018 09:08 -2,6 C -2,2 C -3,3 C 90 % 0 lf 1004,7 hPa 0,0 l/m 0 min 0 min 59 W/m 38,3 km/h (5 Bft) 95,29 %
17.03.2018 09:10 -2,6 C -2,2 C -2,8 C 90 % 0 lf 1004,7 hPa 0,0 l/m 0 min 0 min 63 W/m 31,5 km/h (5 Bft) 95,74 %
17.03.2018 09:12 -2,6 C -2,2 C -2,8 C 90 % 0 lf 1004,8 hPa 0,0 l/m 0 min 0 min 64 W/m 36,0 km/h (5 Bft) 97,87 %
17.03.2018 09:14 -2,6 C -2,2 C -2,8 C 90 % 0 lf 1004,8 hPa 0,0 l/m 0 min 0 min 63 W/m 42,8 km/h (6 Bft) 95,74 %
17.03.2018 09:16 -2,6 C -2,2 C -2,8 C 90 % 0 lf 1004,7 hPa 0,0 l/m 0 min 0 min 64 W/m 40,6 km/h (6 Bft) 95,65 %
17.03.2018 09:18 -2,6 C -2,2 C -2,8 C 90 % 0 lf 1004,8 hPa 0,0 l/m 0 min 0 min 68 W/m 33,8 km/h (5 Bft) 97,87 %
17.03.2018 09:20 -2,6 C -2,2 C -2,8 C 90 % 0 lf 1004,7 hPa 0,0 l/m 0 min 0 min 71 W/m 27,0 km/h (4 Bft) 96,61 %
17.03.2018 09:22 -2,6 C -2,2 C -2,8 C 90 % 0 lf 1004,7 hPa 0,0 l/m 0 min 0 min 76 W/m 33,8 km/h (5 Bft) 97,14 %
17.03.2018 09:24 -2,6 C -2,2 C -2,8 C 90 % 0 lf 1004,7 hPa 0,0 l/m 0 min 0 min 81 W/m 38,3 km/h (5 Bft) 97,87 %
17.03.2018 09:26 -2,6 C -2,2 C -2,8 C 90 % 0 lf 1004,7 hPa 0,0 l/m 0 min 0 min 88 W/m 40,6 km/h (6 Bft) 95,74 %
17.03.2018 09:28 -2,6 C -2,2 C -2,8 C 90 % 0 lf 1004,8 hPa 0,0 l/m 0 min 0 min 91 W/m 40,6 km/h (6 Bft) 97,83 %
17.03.2018 09:30 -2,6 C -2,2 C -2,8 C 90 % 0 lf 1004,8 hPa 0,0 l/m 0 min 0 min 96 W/m 38,3 km/h (5 Bft) 93,62 %
17.03.2018 09:32 -2,6 C -2,2 C -2,8 C 90 % 0 lf 1004,8 hPa 0,0 l/m 0 min 0 min 99 W/m 36,0 km/h (5 Bft) 95,74 %
17.03.2018 09:34 -2,6 C -2,2 C -2,8 C 90 % 0 lf 1004,7 hPa 0,2 l/m 0 min 0 min 101 W/m 40,6 km/h (6 Bft) 95,74 %
17.03.2018 09:36 -2,5 C -2,2 C -2,8 C 90 % 0 lf 1004,7 hPa 0,0 l/m 0 min 0 min 97 W/m 31,5 km/h (5 Bft) 97,87 %
17.03.2018 09:38 -2,6 C -2,2 C -2,8 C 90 % 0 lf 1004,7 hPa 0,0 l/m 0 min 0 min 93 W/m 33,8 km/h (5 Bft) 97,87 %
17.03.2018 09:40 -2,5 C -2,2 C -2,8 C 90 % 0 lf 1004,7 hPa 0,0 l/m 0 min 0 min 90 W/m 49,6 km/h (6 Bft) 97,83 %
17.03.2018 09:42 -2,6 C -2,2 C -2,8 C 90 % 0 lf 1004,7 hPa 0,0 l/m 0 min 0 min 87 W/m 36,0 km/h (5 Bft) 97,87 %
17.03.2018 09:44 -2,6 C -2,2 C -2,8 C 91 % 0 lf 1004,7 hPa 0,0 l/m 0 min 0 min 86 W/m 36,0 km/h (5 Bft) 97,87 %
17.03.2018 09:46 -2,6 C -2,2 C -2,8 C 91 % 0 lf 1004,8 hPa 0,0 l/m 0 min 0 min 89 W/m 36,0 km/h (5 Bft) 97,87 %
17.03.2018 09:48 -2,6 C -2,2 C -2,8 C 91 % 0 lf 1004,7 hPa 0,0 l/m 0 min 0 min 94 W/m 36,0 km/h (5 Bft) 95,74 %
17.03.2018 09:50 -2,6 C -2,2 C -2,8 C 91 % 0 lf 1004,8 hPa 0,0 l/m 0 min 0 min 98 W/m 38,3 km/h (5 Bft) 96,55 %
17.03.2018 09:52 -2,6 C -2,2 C -2,8 C 91 % 0 lf 1004,7 hPa 0,0 l/m 0 min 0 min 98 W/m 42,8 km/h (6 Bft) 97,14 %
17.03.2018 09:54 -2,6 C -2,2 C -2,8 C 91 % 0 lf 1004,7 hPa 0,0 l/m 0 min 0 min 97 W/m 33,8 km/h (5 Bft) 95,74 %
17.03.2018 09:56 -2,6 C -2,2 C -2,8 C 91 % 0 lf 1004,7 hPa 0,0 l/m 0 min 0 min 96 W/m 36,0 km/h (5 Bft) 95,74 %
17.03.2018 09:58 -2,6 C -2,2 C -2,8 C 91 % 0 lf 1004,7 hPa 0,0 l/m 0 min 0 min 93 W/m 27,0 km/h (4 Bft) 97,87 %
17.03.2018 10:00 -2,6 C -2,2 C -2,2 C 91 % 0 lf 1004,7 hPa 0,0 l/m 0 min 0 min 93 W/m 38,3 km/h (5 Bft) 97,87 %
17.03.2018 10:02 -2,6 C -2,2 C -2,8 C 91 % 0 lf 1004,8 hPa 0,0 l/m 0 min 0 min 93 W/m 42,8 km/h (6 Bft) 95,74 %
17.03.2018 10:04 -2,6 C -2,2 C -2,8 C 91 % 0 lf 1004,8 hPa 0,0 l/m 0 min 0 min 94 W/m 42,8 km/h (6 Bft) 97,87 %
17.03.2018 10:06 -2,6 C -2,2 C -2,8 C 91 % 0 lf 1004,8 hPa 0,0 l/m 0 min 0 min 95 W/m 31,5 km/h (5 Bft) 97,87 %
17.03.2018 10:08 -2,6 C -2,2 C -2,8 C 91 % 0 lf 1004,8 hPa 0,0 l/m 0 min 0 min 94 W/m 33,8 km/h (5 Bft) 97,87 %
17.03.2018 10:10 -2,6 C -2,2 C -2,8 C 91 % 0 lf 1004,8 hPa 0,0 l/m 0 min 0 min 93 W/m 40,6 km/h (6 Bft) 95,74 %
17.03.2018 10:12 -2,6 C -2,2 C -2,8 C 91 % 0 lf 1004,7 hPa 0,2 l/m 0 min 0 min 90 W/m 47,3 km/h (6 Bft) 97,87 %
17.03.2018 10:14 -2,7 C -2,2 C -2,8 C 91 % 0 lf 1004,7 hPa 0,0 l/m 0 min 0 min 91 W/m 42,8 km/h (6 Bft) 97,83 %
17.03.2018 10:16 -2,7 C -2,2 C -2,8 C 91 % 0 lf 1004,8 hPa 0,0 l/m 0 min 0 min 96 W/m 40,6 km/h (6 Bft) 97,87 %
17.03.2018 10:18 -2,7 C -2,2 C -2,8 C 91 % 0 lf 1004,7 hPa 0,0 l/m 0 min 0 min 110 W/m 38,3 km/h (5 Bft) 100,00 %
17.03.2018 10:20 -2,7 C -2,2 C -2,8 C 91 % 0 lf 1004,8 hPa 0,0 l/m 0 min 0 min 125 W/m 49,6 km/h (6 Bft) 100,00 %
17.03.2018 10:22 -2,7 C -2,2 C -2,8 C 91 % 0 lf 1004,8 hPa 0,0 l/m 0 min 0 min 133 W/m 36,0 km/h (5 Bft) 95,74 %
17.03.2018 10:24 -2,7 C -2,2 C -2,2 C 91 % 0 lf 1004,8 hPa 0,0 l/m 0 min 0 min 141 W/m 38,3 km/h (5 Bft) 97,87 %
17.03.2018 10:26 -2,7 C -1,7 C -2,2 C 91 % 0 lf 1004,8 hPa 0,0 l/m 0 min 0 min 147 W/m 36,0 km/h (5 Bft) 100,00 %
17.03.2018 10:28 -2,7 C -1,7 C -2,2 C 91 % 0 lf 1004,7 hPa 0,0 l/m 0 min 0 min 153 W/m 54,1 km/h (7 Bft) 100,00 %
17.03.2018 10:30 -2,7 C -1,7 C -2,2 C 91 % 0 lf 1004,8 hPa 0,0 l/m 0 min 0 min 157 W/m 49,6 km/h (6 Bft) 97,87 %
17.03.2018 10:32 -2,7 C -2,2 C -2,2 C 91 % 0 lf 1004,7 hPa 0,0 l/m 0 min 0 min 163 W/m 42,8 km/h (6 Bft) 100,00 %
17.03.2018 10:34 -2,6 C -1,7 C -2,2 C 91 % 0 lf 1004,8 hPa 0,0 l/m 0 min 0 min 175 W/m 33,8 km/h (5 Bft) 95,74 %
17.03.2018 10:36 -2,6 C -1,7 C -1,7 C 91 % 0 lf 1004,7 hPa 0,0 l/m 0 min 0 min 181 W/m 33,8 km/h (5 Bft) 95,74 %
17.03.2018 10:38 -2,6 C -1,7 C -1,7 C 91 % 0 lf 1004,8 hPa 0,0 l/m 0 min 0 min 189 W/m 36,0 km/h (5 Bft) 95,65 %
17.03.2018 10:40 -2,6 C -1,7 C -1,7 C 91 % 0 lf 1004,8 hPa 0,0 l/m 0 min 0 min 193 W/m 51,8 km/h (7 Bft) 97,87 %
17.03.2018 10:42 -2,6 C -1,7 C -1,7 C 91 % 0 lf 1004,7 hPa 0,0 l/m 0 min 0 min 195 W/m 36,0 km/h (5 Bft) 97,87 %
17.03.2018 10:44 -2,5 C -1,7 C -1,7 C 91 % 0 lf 1004,7 hPa 0,0 l/m 0 min 0 min 192 W/m 40,6 km/h (6 Bft) 97,87 %
17.03.2018 10:46 -2,5 C -1,7 C -1,7 C 91 % 0 lf 1004,7 hPa 0,0 l/m 0 min 0 min 193 W/m 42,8 km/h (6 Bft) 97,87 %
17.03.2018 10:48 -2,5 C -1,7 C -1,7 C 91 % 0 lf 1004,8 hPa 0,0 l/m 0 min 0 min 195 W/m 33,8 km/h (5 Bft) 97,83 %
17.03.2018 10:50 -2,5 C -1,7 C -1,7 C 91 % 0 lf 1004,7 hPa 0,0 l/m 0 min 0 min 199 W/m 45,1 km/h (6 Bft) 97,87 %
17.03.2018 10:52 -2,5 C -1,7 C -1,7 C 91 % 0 lf 1004,8 hPa 0,0 l/m 0 min 0 min 201 W/m 40,6 km/h (6 Bft) 97,87 %
17.03.2018 10:54 -2,4 C -1,1 C -1,7 C 91 % 0 lf 1004,7 hPa 0,0 l/m 0 min 0 min 201 W/m 51,8 km/h (7 Bft) 91,49 %
17.03.2018 10:56 -2,4 C -1,7 C -1,7 C 91 % 0 lf 1004,8 hPa 0,0 l/m 0 min 0 min 198 W/m 49,6 km/h (6 Bft) 95,74 %
17.03.2018 10:58 -2,4 C -1,1 C -1,7 C 90 % 0 lf 1004,8 hPa 0,0 l/m 0 min 0 min 194 W/m 31,5 km/h (5 Bft) 95,74 %
17.03.2018 11:00 -2,4 C -1,7 C -1,7 C 90 % 0 lf 1004,7 hPa 0,0 l/m 0 min 0 min 186 W/m 38,3 km/h (5 Bft) 93,48 %
17.03.2018 11:02 -2,4 C -1,7 C -1,7 C 90 % 0 lf 1004,8 hPa 0,0 l/m 0 min 0 min 191 W/m 36,0 km/h (5 Bft) 93,62 %
17.03.2018 11:04 -2,4 C -1,7 C -1,7 C 90 % 0 lf 1004,8 hPa 0,0 l/m 0 min 0 min 196 W/m 49,6 km/h (6 Bft) 95,74 %
17.03.2018 11:06 -2,4 C -1,7 C -1,7 C 90 % 0 lf 1004,7 hPa 0,0 l/m 0 min 0 min 203 W/m 33,8 km/h (5 Bft) 93,62 %
17.03.2018 11:08 -2,4 C -1,1 C -1,7 C 90 % 0 lf 1004,7 hPa 0,0 l/m 0 min 0 min 217 W/m 38,3 km/h (5 Bft) 97,87 %
17.03.2018 11:10 -2,4 C -1,7 C -1,7 C 90 % 0 lf 1004,7 hPa 0,0 l/m 0 min 0 min 227 W/m 33,8 km/h (5 Bft) 97,87 %
17.03.2018 11:12 -2,4 C -1,1 C -1,7 C 90 % 0 lf 1004,7 hPa 0,0 l/m 0 min 0 min 236 W/m 36,0 km/h (5 Bft) 95,65 %
17.03.2018 11:14 -2,4 C -1,1 C -1,7 C 90 % 0 lf 1004,7 hPa 0,0 l/m 0 min 0 min 238 W/m 51,8 km/h (7 Bft) 97,87 %
17.03.2018 11:16 -2,4 C -1,1 C -1,1 C 90 % 0 lf 1004,6 hPa 0,0 l/m 0 min 0 min 243 W/m 36,0 km/h (5 Bft) 97,92 %
17.03.2018 11:18 -2,3 C -1,1 C -1,1 C 90 % 0 lf 1004,6 hPa 0,0 l/m 0 min 0 min 242 W/m 36,0 km/h (5 Bft) 95,74 %
17.03.2018 11:20 -2,3 C -1,1 C -1,1 C 90 % 0 lf 1004,7 hPa 0,0 l/m 0 min 0 min 238 W/m 42,8 km/h (6 Bft) 96,55 %
17.03.2018 11:22 -2,3 C -1,1 C -1,1 C 90 % 0 lf 1004,7 hPa 0,0 l/m 0 min 0 min 236 W/m 31,5 km/h (5 Bft) 97,22 %
17.03.2018 11:24 -2,2 C -1,1 C -1,7 C 90 % 0 lf 1004,8 hPa 0,0 l/m 0 min 0 min 227 W/m 38,3 km/h (5 Bft) 95,65 %
17.03.2018 11:26 -2,2 C -1,1 C -1,1 C 90 % 0 lf 1004,6 hPa 0,0 l/m 0 min 0 min 232 W/m 40,6 km/h (6 Bft) 97,87 %
17.03.2018 11:28 -2,2 C -1,1 C -1,1 C 90 % 0 lf 1004,7 hPa 0,2 l/m 0 min 0 min 238 W/m 45,1 km/h (6 Bft) 93,62 %
17.03.2018 11:30 -2,2 C -1,1 C -1,1 C 90 % 0 lf 1004,7 hPa 0,0 l/m 0 min 0 min 241 W/m 38,3 km/h (5 Bft) 95,74 %
17.03.2018 11:32 -2,2 C -1,1 C -1,1 C 90 % 0 lf 1004,6 hPa 0,0 l/m 0 min 0 min 248 W/m 47,3 km/h (6 Bft) 95,74 %
17.03.2018 11:34 -2,2 C -0,6 C -1,1 C 90 % 0 lf 1004,6 hPa 0,0 l/m 0 min 0 min 256 W/m 33,8 km/h (5 Bft) 95,74 %
17.03.2018 11:36 -2,1 C -0,6 C -1,1 C 90 % 1 lf 1004,5 hPa 0,0 l/m 0 min 0 min 263 W/m 38,3 km/h (5 Bft) 95,65 %
17.03.2018 11:38 -2,1 C -1,1 C -1,1 C 90 % 1 lf 1004,8 hPa 0,0 l/m 0 min 0 min 259 W/m 40,6 km/h (6 Bft) 95,74 %
17.03.2018 11:40 -2,1 C -0,6 C -1,1 C 90 % 1 lf 1004,7 hPa 0,0 l/m 0 min 0 min 274 W/m 42,8 km/h (6 Bft) 95,74 %
17.03.2018 11:42 -2,1 C -0,6 C -1,1 C 90 % 2 lf 1004,8 hPa 0,0 l/m 0 min 0 min 270 W/m 36,0 km/h (5 Bft) 97,87 %
17.03.2018 11:44 -2,1 C -0,6 C -1,1 C 90 % 1 lf 1004,7 hPa 0,0 l/m 0 min 0 min 260 W/m 47,3 km/h (6 Bft) 95,74 %
17.03.2018 11:46 -2,1 C -0,6 C -1,1 C 90 % 2 lf 1004,9 hPa 0,0 l/m 0 min 0 min 262 W/m 36,0 km/h (5 Bft) 97,87 %
17.03.2018 11:48 -2,1 C -0,6 C -1,1 C 90 % 2 lf 1004,9 hPa 0,0 l/m 0 min 0 min 273 W/m 42,8 km/h (6 Bft) 91,30 %
17.03.2018 11:50 -2,1 C -0,6 C -1,1 C 90 % 2 lf 1004,8 hPa 0,0 l/m 0 min 0 min 281 W/m 49,6 km/h (6 Bft) 97,87 %
17.03.2018 11:52 -2,0 C -0,6 C -1,1 C 90 % 4 lf 1004,7 hPa 0,0 l/m 2 min 0 min 300 W/m 36,0 km/h (5 Bft) 95,74 %
17.03.2018 11:54 -2,0 C -0,6 C -1,1 C 90 % 11 lf 1004,6 hPa 0,0 l/m 2 min 0 min 301 W/m 47,3 km/h (6 Bft) 97,87 %
17.03.2018 11:56 -2,0 C -1,1 C -1,1 C 90 % 11 lf 1004,8 hPa 0,0 l/m 0 min 0 min 281 W/m 49,6 km/h (6 Bft) 97,87 %
17.03.2018 11:58 -2,0 C -1,1 C -1,1 C 90 % 9 lf 1004,8 hPa 0,0 l/m 0 min 2 min 272 W/m 45,1 km/h (6 Bft) 95,65 %
17.03.2018 12:00 -2,0 C -0,6 C -1,1 C 90 % 12 lf 1004,8 hPa 0,0 l/m 2 min 0 min 303 W/m 51,8 km/h (7 Bft) 95,74 %
17.03.2018 12:02 -2,0 C -0,6 C -1,1 C 90 % 12 lf 1004,8 hPa 0,0 l/m 2 min 0 min 314 W/m 49,6 km/h (6 Bft) 97,87 %
17.03.2018 12:04 -2,0 C 0,0 C -1,1 C 90 % 15 lf 1004,8 hPa 0,0 l/m 2 min 0 min 337 W/m 40,6 km/h (6 Bft) 97,87 %
17.03.2018 12:08 -1,9 C 0,0 C -1,1 C 90 % 15 lf 1004,8 hPa 0,0 l/m 4 min 0 min 350 W/m 40,6 km/h (6 Bft) 96,00 %
17.03.2018 12:10 -1,9 C 0,6 C -1,1 C 90 % 15 lf 1004,8 hPa 0,0 l/m 2 min 0 min 354 W/m 36,0 km/h (5 Bft) 95,74 %
17.03.2018 12:12 -1,8 C 0,0 C -1,1 C 90 % 15 lf 1004,6 hPa 0,0 l/m 2 min 2 min 341 W/m 51,8 km/h (7 Bft) 97,83 %
17.03.2018 12:14 -1,8 C 0,0 C -1,1 C 90 % 15 lf 1004,7 hPa 0,0 l/m 2 min 0 min 321 W/m 38,3 km/h (5 Bft) 97,87 %
17.03.2018 12:16 -1,8 C 0,0 C -1,1 C 90 % 15 lf 1004,8 hPa 0,0 l/m 2 min 0 min 304 W/m 47,3 km/h (6 Bft) 100,00 %
17.03.2018 12:18 -1,8 C 0,0 C -1,1 C 89 % 15 lf 1004,8 hPa 0,0 l/m 0 min 0 min 286 W/m 33,8 km/h (5 Bft) 100,00 %
17.03.2018 12:20 -1,7 C 0,0 C -1,1 C 89 % 15 lf 1004,7 hPa 0,0 l/m 0 min 0 min 281 W/m 38,3 km/h (5 Bft) 100,00 %
17.03.2018 12:22 -1,7 C -0,6 C -1,1 C 89 % 15 lf 1004,7 hPa 0,0 l/m 0 min 0 min 276 W/m 33,8 km/h (5 Bft) 100,00 %
17.03.2018 12:24 -1,7 C 0,0 C -1,1 C 89 % 15 lf 1004,8 hPa 0,0 l/m 0 min 0 min 284 W/m 56,3 km/h (7 Bft) 100,00 %
17.03.2018 12:26 -1,7 C -0,6 C -1,1 C 89 % 15 lf 1004,8 hPa 0,0 l/m 0 min 0 min 288 W/m 33,8 km/h (5 Bft) 97,87 %
17.03.2018 12:28 -1,8 C -0,6 C -1,1 C 88 % 15 lf 1004,7 hPa 0,0 l/m 2 min 0 min 301 W/m 45,1 km/h (6 Bft) 97,87 %
17.03.2018 12:30 -1,7 C 0,0 C -1,1 C 88 % 15 lf 1004,8 hPa 0,0 l/m 2 min 0 min 323 W/m 42,8 km/h (6 Bft) 97,87 %
17.03.2018 12:32 -1,7 C 0,6 C -0,6 C 88 % 15 lf 1004,8 hPa 0,0 l/m 2 min 0 min 347 W/m 33,8 km/h (5 Bft) 100,00 %
17.03.2018 12:34 -1,7 C 0,6 C -1,1 C 88 % 15 lf 1004,7 hPa 0,0 l/m 2 min 0 min 365 W/m 49,6 km/h (6 Bft) 100,00 %
17.03.2018 12:36 -1,7 C 0,6 C -1,1 C 88 % 15 lf 1004,6 hPa 0,0 l/m 2 min 0 min 361 W/m 45,1 km/h (6 Bft) 97,87 %
17.03.2018 12:38 -1,7 C 0,6 C -1,1 C 88 % 14 lf 1004,7 hPa 0,0 l/m 2 min 0 min 368 W/m 54,1 km/h (7 Bft) 97,83 %
17.03.2018 12:40 -1,7 C 0,6 C -1,1 C 88 % 14 lf 1004,8 hPa 0,0 l/m 2 min 0 min 364 W/m 54,1 km/h (7 Bft) 97,87 %
17.03.2018 12:42 -1,7 C 0,0 C -1,1 C 88 % 14 lf 1004,6 hPa 0,0 l/m 2 min 0 min 355 W/m 47,3 km/h (6 Bft) 97,87 %
17.03.2018 12:44 -1,7 C 0,0 C -1,1 C 87 % 14 lf 1004,4 hPa 0,0 l/m 2 min 0 min 357 W/m 54,1 km/h (7 Bft) 93,62 %
17.03.2018 12:46 -1,7 C 0,0 C -1,1 C 87 % 14 lf 1004,6 hPa 0,0 l/m 2 min 0 min 383 W/m 42,8 km/h (6 Bft) 95,74 %
17.03.2018 12:48 -1,7 C 0,0 C -1,1 C 87 % 14 lf 1004,6 hPa 0,0 l/m 2 min 0 min 402 W/m 45,1 km/h (6 Bft) 95,65 %
17.03.2018 12:50 -1,7 C 0,6 C -0,6 C 87 % 14 lf 1004,5 hPa 0,0 l/m 2 min 0 min 394 W/m 38,3 km/h (5 Bft) 93,62 %
17.03.2018 12:52 -1,6 C 1,1 C -0,6 C 87 % 13 lf 1004,5 hPa 0,0 l/m 2 min 0 min 384 W/m 40,6 km/h (6 Bft) 95,74 %
17.03.2018 12:54 -1,6 C 0,6 C -1,1 C 87 % 12 lf 1004,5 hPa 0,0 l/m 2 min 0 min 371 W/m 40,6 km/h (6 Bft) 91,49 %
17.03.2018 12:56 -1,5 C 0,6 C -0,6 C 87 % 12 lf 1004,6 hPa 0,0 l/m 2 min 0 min 349 W/m 56,3 km/h (7 Bft) 93,62 %
17.03.2018 12:58 -1,4 C 0,6 C -1,1 C 87 % 10 lf 1004,5 hPa 0,0 l/m 2 min 0 min 325 W/m 54,1 km/h (7 Bft) 95,74 %
17.03.2018 13:00 -1,5 C 0,0 C -1,1 C 87 % 2 lf 1004,6 hPa 0,0 l/m 2 min 0 min 307 W/m 54,1 km/h (7 Bft) 95,65 %
17.03.2018 13:02 -1,6 C 0,0 C -1,1 C 87 % 3 lf 1004,5 hPa 0,0 l/m 2 min 0 min 310 W/m 40,6 km/h (6 Bft) 93,62 %
17.03.2018 13:04 -1,6 C 0,0 C -1,1 C 86 % 4 lf 1004,6 hPa 0,0 l/m 2 min 0 min 313 W/m 42,8 km/h (6 Bft) 97,87 %
17.03.2018 13:06 -1,5 C 0,0 C -1,1 C 87 % 5 lf 1004,6 hPa 0,0 l/m 0 min 2 min 296 W/m 38,3 km/h (5 Bft) 93,62 %
17.03.2018 13:08 -1,5 C -0,6 C -1,1 C 87 % 3 lf 1004,7 hPa 0,0 l/m 0 min 0 min 262 W/m 38,3 km/h (5 Bft) 95,74 %
17.03.2018 13:10 -1,5 C -0,6 C -1,1 C 87 % 2 lf 1004,6 hPa 0,0 l/m 0 min 0 min 245 W/m 47,3 km/h (6 Bft) 97,83 %
17.03.2018 13:12 -1,5 C -0,6 C -1,1 C 86 % 0 lf 1004,7 hPa 0,0 l/m 0 min 0 min 227 W/m 42,8 km/h (6 Bft) 97,87 %
17.03.2018 13:14 -1,6 C -0,6 C -1,1 C 86 % 0 lf 1004,7 hPa 0,0 l/m 0 min 0 min 227 W/m 47,3 km/h (6 Bft) 97,87 %
17.03.2018 13:16 -1,6 C -1,1 C -1,1 C 86 % 0 lf 1004,7 hPa 0,0 l/m 0 min 0 min 227 W/m 40,6 km/h (6 Bft) 97,87 %
17.03.2018 13:18 -1,6 C -0,6 C -1,1 C 86 % 0 lf 1004,6 hPa 0,0 l/m 0 min 0 min 239 W/m 36,0 km/h (5 Bft) 97,87 %
17.03.2018 13:20 -1,6 C -0,6 C -1,1 C 86 % 0 lf 1004,6 hPa 0,0 l/m 0 min 0 min 229 W/m 42,8 km/h (6 Bft) 97,87 %
17.03.2018 13:22 -1,6 C -1,1 C -1,1 C 86 % 0 lf 1004,6 hPa 0,0 l/m 0 min 0 min 216 W/m 42,8 km/h (6 Bft) 95,65 %
17.03.2018 13:24 -1,7 C -1,1 C -1,1 C 86 % 0 lf 1004,5 hPa 0,0 l/m 0 min 0 min 215 W/m 42,8 km/h (6 Bft) 95,74 %
17.03.2018 13:26 -1,7 C -1,1 C -1,1 C 86 % 0 lf 1004,6 hPa 0,0 l/m 0 min 0 min 216 W/m 45,1 km/h (6 Bft) 93,62 %
17.03.2018 13:28 -1,7 C -1,1 C -1,1 C 86 % 0 lf 1004,4 hPa 0,0 l/m 0 min 0 min 224 W/m 45,1 km/h (6 Bft) 95,74 %
17.03.2018 13:30 -1,8 C -0,6 C -1,1 C 86 % 0 lf 1004,3 hPa 0,0 l/m 0 min 0 min 228 W/m 45,1 km/h (6 Bft) 93,62 %
17.03.2018 13:32 -1,8 C -0,6 C -1,1 C 86 % 0 lf 1004,2 hPa 0,0 l/m 0 min 0 min 219 W/m 47,3 km/h (6 Bft) 95,74 %
17.03.2018 13:34 -1,8 C -1,1 C -1,1 C 86 % 0 lf 1004,4 hPa 0,0 l/m 0 min 0 min 222 W/m 51,8 km/h (7 Bft) 91,30 %
17.03.2018 13:36 -1,8 C -1,1 C -1,1 C 85 % 0 lf 1004,3 hPa 0,0 l/m 0 min 0 min 215 W/m 45,1 km/h (6 Bft) 95,74 %
17.03.2018 13:38 -1,8 C -0,6 C -1,1 C 85 % 0 lf 1004,3 hPa 0,0 l/m 0 min 0 min 222 W/m 58,6 km/h (7 Bft) 93,62 %
17.03.2018 13:40 -1,8 C -1,1 C -1,7 C 85 % 0 lf 1004,2 hPa 0,0 l/m 0 min 0 min 209 W/m 54,1 km/h (7 Bft) 95,74 %
17.03.2018 13:42 -1,8 C -1,1 C -1,1 C 85 % 0 lf 1004,2 hPa 0,0 l/m 0 min 0 min 204 W/m 51,8 km/h (7 Bft) 91,49 %
17.03.2018 13:44 -1,8 C -1,1 C -1,7 C 85 % 0 lf 1004,2 hPa 0,0 l/m 0 min 0 min 206 W/m 42,8 km/h (6 Bft) 97,87 %
17.03.2018 13:46 -1,8 C -1,1 C -1,7 C 85 % 0 lf 1004,2 hPa 0,0 l/m 0 min 0 min 222 W/m 49,6 km/h (6 Bft) 95,65 %
17.03.2018 13:48 -1,8 C -1,1 C -1,7 C 85 % 0 lf 1004,1 hPa 0,0 l/m 0 min 0 min 217 W/m 51,8 km/h (7 Bft) 97,87 %
17.03.2018 13:50 -1,8 C -1,1 C -1,7 C 85 % 0 lf 1004,2 hPa 0,0 l/m 0 min 0 min 204 W/m 47,3 km/h (6 Bft) 97,87 %
17.03.2018 13:52 -1,8 C -1,1 C -1,7 C 84 % 0 lf 1004,2 hPa 0,0 l/m 0 min 0 min 189 W/m 56,3 km/h (7 Bft) 95,74 %
17.03.2018 13:54 -1,9 C -1,1 C -1,7 C 84 % 0 lf 1004,2 hPa 0,0 l/m 0 min 0 min 182 W/m 40,6 km/h (6 Bft) 97,87 %
17.03.2018 13:56 -1,9 C -1,1 C -1,7 C 84 % 0 lf 1004,2 hPa 0,0 l/m 0 min 0 min 184 W/m 56,3 km/h (7 Bft) 97,83 %
17.03.2018 13:58 -1,9 C -1,1 C -1,7 C 85 % 0 lf 1004,2 hPa 0,0 l/m 0 min 0 min 179 W/m 54,1 km/h (7 Bft) 97,87 %
17.03.2018 14:00 -1,9 C -1,1 C -1,7 C 84 % 0 lf 1004,4 hPa 0,0 l/m 0 min 0 min 176 W/m 58,6 km/h (7 Bft) 97,87 %
17.03.2018 14:02 -1,9 C -1,1 C -1,7 C 84 % 0 lf 1004,2 hPa 0,0 l/m 0 min 0 min 172 W/m 49,6 km/h (6 Bft) 95,92 %
17.03.2018 14:04 -1,9 C -1,7 C -1,7 C 84 % 0 lf 1004,1 hPa 0,0 l/m 0 min 0 min 176 W/m 47,3 km/h (6 Bft) 95,74 %
17.03.2018 14:08 -2,0 C -1,1 C -1,7 C 84 % 0 lf 1004,2 hPa 0,0 l/m 0 min 0 min 180 W/m 42,8 km/h (6 Bft) 95,29 %
17.03.2018 14:10 -1,9 C -1,1 C -1,1 C 84 % 0 lf 1004,1 hPa 0,0 l/m 0 min 0 min 192 W/m 38,3 km/h (5 Bft) 97,87 %
17.03.2018 14:12 -1,9 C -1,1 C -1,1 C 84 % 0 lf 1004,1 hPa 0,0 l/m 0 min 0 min 193 W/m 51,8 km/h (7 Bft) 93,48 %
17.03.2018 14:14 -1,9 C -1,1 C -1,1 C 84 % 0 lf 1004,1 hPa 0,0 l/m 0 min 0 min 180 W/m 33,8 km/h (5 Bft) 97,87 %
17.03.2018 14:16 -1,9 C -1,1 C -1,1 C 84 % 0 lf 1004,1 hPa 0,0 l/m 0 min 0 min 182 W/m 38,3 km/h (5 Bft) 95,74 %
17.03.2018 14:18 -1,9 C -1,1 C -1,1 C 84 % 0 lf 1004,0 hPa 0,0 l/m 0 min 0 min 185 W/m 31,5 km/h (5 Bft) 97,87 %
17.03.2018 14:20 -1,8 C -1,1 C -1,1 C 84 % 0 lf 1003,9 hPa 0,0 l/m 0 min 0 min 187 W/m 38,3 km/h (5 Bft) 98,28 %
17.03.2018 14:22 -1,8 C -1,1 C -1,1 C 84 % 0 lf 1003,9 hPa 0,0 l/m 0 min 0 min 190 W/m 40,6 km/h (6 Bft) 97,14 %
17.03.2018 14:24 -1,8 C -1,1 C -1,1 C 83 % 0 lf 1003,9 hPa 0,0 l/m 0 min 0 min 183 W/m 56,3 km/h (7 Bft) 97,87 %
17.03.2018 14:26 -1,8 C -1,1 C -1,1 C 83 % 0 lf 1003,9 hPa 0,0 l/m 0 min 0 min 173 W/m 47,3 km/h (6 Bft) 97,87 %
17.03.2018 14:28 -1,8 C -1,1 C -1,7 C 83 % 0 lf 1003,9 hPa 0,0 l/m 0 min 0 min 173 W/m 36,0 km/h (5 Bft) 93,62 %
17.03.2018 14:30 -1,8 C -1,1 C -1,7 C 83 % 0 lf 1003,9 hPa 0,0 l/m 0 min 0 min 177 W/m 38,3 km/h (5 Bft) 95,74 %
17.03.2018 14:32 -1,8 C -1,1 C -1,1 C 83 % 0 lf 1003,9 hPa 0,0 l/m 0 min 0 min 165 W/m 36,0 km/h (5 Bft) 97,87 %
17.03.2018 14:34 -1,8 C -1,1 C -1,1 C 83 % 0 lf 1003,8 hPa 0,0 l/m 0 min 0 min 157 W/m 38,3 km/h (5 Bft) 95,65 %
17.03.2018 14:36 -1,8 C -1,1 C -1,1 C 83 % 0 lf 1003,8 hPa 0,0 l/m 0 min 0 min 155 W/m 38,3 km/h (5 Bft) 94,00 %
17.03.2018 14:38 -1,8 C -1,1 C -1,7 C 82 % 0 lf 1003,8 hPa 0,0 l/m 0 min 0 min 160 W/m 58,6 km/h (7 Bft) 95,74 %
17.03.2018 14:40 -1,8 C -1,1 C -1,7 C 82 % 0 lf 1003,9 hPa 0,0 l/m 0 min 0 min 149 W/m 56,3 km/h (7 Bft) 93,62 %
17.03.2018 14:42 -1,8 C -1,7 C -2,2 C 81 % 0 lf 1003,9 hPa 0,0 l/m 0 min 0 min 141 W/m 36,0 km/h (5 Bft) 93,48 %
17.03.2018 14:44 -1,9 C -1,7 C -2,2 C 80 % 0 lf 1003,8 hPa 0,0 l/m 0 min 0 min 133 W/m 40,6 km/h (6 Bft) 95,74 %
17.03.2018 14:46 -1,9 C -1,7 C -1,7 C 80 % 0 lf 1004,0 hPa 0,0 l/m 0 min 0 min 131 W/m 45,1 km/h (6 Bft) 93,62 %
17.03.2018 14:48 -1,9 C -1,7 C -1,7 C 81 % 0 lf 1004,0 hPa 0,0 l/m 0 min 0 min 129 W/m 33,8 km/h (5 Bft) 93,62 %
17.03.2018 14:50 -1,9 C -1,7 C -1,7 C 81 % 0 lf 1004,0 hPa 0,0 l/m 0 min 0 min 140 W/m 42,8 km/h (6 Bft) 95,74 %
17.03.2018 14:52 -1,9 C -1,1 C -1,7 C 81 % 0 lf 1004,0 hPa 0,0 l/m 0 min 0 min 137 W/m 49,6 km/h (6 Bft) 95,74 %
17.03.2018 14:54 -1,9 C -1,7 C -1,7 C 81 % 0 lf 1004,0 hPa 0,0 l/m 0 min 0 min 124 W/m 33,8 km/h (5 Bft) 95,65 %
17.03.2018 14:56 -1,9 C -1,7 C -1,7 C 81 % 0 lf 1004,0 hPa 0,0 l/m 0 min 0 min 113 W/m 29,3 km/h (5 Bft) 95,74 %
17.03.2018 14:58 -1,9 C -1,7 C -1,7 C 81 % 0 lf 1004,1 hPa 0,0 l/m 0 min 0 min 116 W/m 47,3 km/h (6 Bft) 95,74 %
17.03.2018 15:00 -1,9 C -1,7 C -1,7 C 81 % 0 lf 1004,1 hPa 0,0 l/m 0 min 0 min 112 W/m 36,0 km/h (5 Bft) 93,62 %
17.03.2018 15:02 -1,9 C -1,7 C -1,7 C 81 % 0 lf 1004,0 hPa 0,0 l/m 0 min 0 min 108 W/m 45,1 km/h (6 Bft) 93,62 %
17.03.2018 15:04 -1,9 C -1,7 C -1,7 C 81 % 0 lf 1004,1 hPa 0,0 l/m 0 min 0 min 106 W/m 51,8 km/h (7 Bft) 95,74 %
17.03.2018 15:06 -1,9 C -1,7 C -2,2 C 80 % 0 lf 1004,1 hPa 0,0 l/m 0 min 0 min 104 W/m 45,1 km/h (6 Bft) 97,83 %
17.03.2018 15:08 -2,0 C -1,7 C -2,2 C 80 % 0 lf 1004,1 hPa 0,0 l/m 0 min 0 min 100 W/m 38,3 km/h (5 Bft) 97,87 %
17.03.2018 15:10 -2,0 C -1,7 C -2,2 C 80 % 0 lf 1004,1 hPa 0,0 l/m 0 min 0 min 103 W/m 51,8 km/h (7 Bft) 100,00 %
17.03.2018 15:12 -2,0 C -1,7 C -2,2 C 80 % 0 lf 1004,1 hPa 0,0 l/m 0 min 0 min 95 W/m 40,6 km/h (6 Bft) 100,00 %
17.03.2018 15:14 -2,0 C -1,7 C -2,2 C 80 % 0 lf 1004,1 hPa 0,0 l/m 0 min 0 min 85 W/m 38,3 km/h (5 Bft) 97,87 %
17.03.2018 15:16 -2,0 C -1,7 C -2,2 C 80 % 0 lf 1004,1 hPa 0,0 l/m 0 min 0 min 83 W/m 42,8 km/h (6 Bft) 97,83 %
17.03.2018 15:18 -2,0 C -1,7 C -2,2 C 80 % 0 lf 1004,1 hPa 0,0 l/m 0 min 0 min 74 W/m 42,8 km/h (6 Bft) 100,00 %
17.03.2018 15:20 -2,0 C -1,7 C -2,2 C 80 % 0 lf 1004,1 hPa 0,0 l/m 0 min 0 min 67 W/m 40,6 km/h (6 Bft) 100,00 %
17.03.2018 15:22 -2,0 C -1,7 C -2,2 C 80 % 0 lf 1004,2 hPa 0,0 l/m 0 min 0 min 68 W/m 33,8 km/h (5 Bft) 97,87 %
17.03.2018 15:24 -2,0 C -1,7 C -2,2 C 80 % 0 lf 1004,1 hPa 0,0 l/m 0 min 0 min 71 W/m 38,3 km/h (5 Bft) 100,00 %
17.03.2018 15:26 -2,1 C -1,7 C -2,2 C 80 % 0 lf 1004,1 hPa 0,0 l/m 0 min 0 min 82 W/m 49,6 km/h (6 Bft) 100,00 %
17.03.2018 15:28 -2,1 C -1,7 C -2,2 C 80 % 0 lf 1004,0 hPa 0,0 l/m 0 min 0 min 90 W/m 54,1 km/h (7 Bft) 100,00 %
17.03.2018 15:30 -2,1 C -1,7 C -2,2 C 80 % 0 lf 1004,1 hPa 0,0 l/m 0 min 0 min 90 W/m 40,6 km/h (6 Bft) 98,11 %
17.03.2018 15:32 -2,1 C -1,7 C -2,2 C 80 % 0 lf 1004,1 hPa 0,0 l/m 0 min 0 min 87 W/m 27,0 km/h (4 Bft) 97,92 %
17.03.2018 15:34 -2,1 C -1,7 C -2,2 C 80 % 0 lf 1004,1 hPa 0,0 l/m 0 min 0 min 86 W/m 31,5 km/h (5 Bft) 100,00 %
17.03.2018 15:36 -2,1 C -1,7 C -2,2 C 80 % 0 lf 1004,1 hPa 0,0 l/m 0 min 0 min 88 W/m 38,3 km/h (5 Bft) 100,00 %
17.03.2018 15:38 -2,1 C -1,7 C -2,2 C 79 % 0 lf 1004,1 hPa 0,0 l/m 0 min 0 min 84 W/m 29,3 km/h (5 Bft) 100,00 %
17.03.2018 15:40 -2,1 C -1,7 C -2,2 C 80 % 0 lf 1004,1 hPa 0,0 l/m 0 min 0 min 89 W/m 38,3 km/h (5 Bft) 100,00 %
17.03.2018 15:42 -2,1 C -1,7 C -2,2 C 80 % 0 lf 1004,1 hPa 0,0 l/m 0 min 0 min 92 W/m 47,3 km/h (6 Bft) 97,83 %
17.03.2018 15:44 -2,1 C -1,7 C -2,2 C 80 % 0 lf 1004,1 hPa 0,0 l/m 0 min 0 min 89 W/m 54,1 km/h (7 Bft) 97,87 %
17.03.2018 15:46 -2,1 C -1,7 C -2,2 C 79 % 0 lf 1004,1 hPa 0,0 l/m 0 min 0 min 86 W/m 33,8 km/h (5 Bft) 100,00 %
17.03.2018 15:48 -2,1 C -1,7 C -2,2 C 79 % 0 lf 1004,1 hPa 0,0 l/m 0 min 0 min 89 W/m 33,8 km/h (5 Bft) 100,00 %
17.03.2018 15:50 -2,1 C -1,7 C -2,2 C 79 % 0 lf 1004,1 hPa 0,0 l/m 0 min 0 min 90 W/m 38,3 km/h (5 Bft) 100,00 %
17.03.2018 15:52 -2,1 C -1,7 C -2,2 C 79 % 0 lf 1004,1 hPa 0,0 l/m 0 min 0 min 86 W/m 40,6 km/h (6 Bft) 100,00 %
17.03.2018 15:54 -2,1 C -1,7 C -2,2 C 79 % 0 lf 1004,2 hPa 0,0 l/m 0 min 0 min 81 W/m 47,3 km/h (6 Bft) 100,00 %
17.03.2018 15:56 -2,1 C -1,7 C -2,2 C 79 % 0 lf 1004,2 hPa 0,0 l/m 0 min 0 min 74 W/m 36,0 km/h (5 Bft) 100,00 %
17.03.2018 15:58 -2,1 C -1,7 C -2,2 C 79 % 0 lf 1004,2 hPa 0,0 l/m 0 min 0 min 66 W/m 42,8 km/h (6 Bft) 98,08 %
17.03.2018 16:00 -2,1 C -1,7 C -2,2 C 79 % 0 lf 1004,1 hPa 0,0 l/m 0 min 0 min 66 W/m 36,0 km/h (5 Bft) 100,00 %
17.03.2018 16:02 -2,1 C -2,2 C -2,2 C 79 % 0 lf 1004,1 hPa 0,0 l/m 0 min 0 min 65 W/m 40,6 km/h (6 Bft) 100,00 %
17.03.2018 16:04 -2,1 C -1,7 C -2,8 C 79 % 0 lf 1004,2 hPa 0,0 l/m 0 min 0 min 66 W/m 31,5 km/h (5 Bft) 97,83 %
17.03.2018 16:06 -2,1 C -1,7 C -2,2 C 79 % 0 lf 1004,0 hPa 0,0 l/m 0 min 0 min 67 W/m 38,3 km/h (5 Bft) 100,00 %
17.03.2018 16:08 -2,1 C -1,7 C -2,2 C 79 % 0 lf 1004,1 hPa 0,0 l/m 0 min 0 min 65 W/m 51,8 km/h (7 Bft) 100,00 %
17.03.2018 16:10 -2,1 C -1,7 C -2,2 C 79 % 0 lf 1004,2 hPa 0,0 l/m 0 min 0 min 65 W/m 36,0 km/h (5 Bft) 100,00 %
17.03.2018 16:12 -2,1 C -1,7 C -2,2 C 79 % 0 lf 1004,1 hPa 0,0 l/m 0 min 0 min 66 W/m 42,8 km/h (6 Bft) 97,87 %
17.03.2018 16:14 -2,1 C -1,7 C -2,2 C 79 % 0 lf 1004,1 hPa 0,0 l/m 0 min 0 min 69 W/m 36,0 km/h (5 Bft) 97,83 %
17.03.2018 16:16 -2,1 C -1,7 C -2,2 C 79 % 0 lf 1004,1 hPa 0,0 l/m 0 min 0 min 69 W/m 38,3 km/h (5 Bft) 97,92 %
17.03.2018 16:18 -2,1 C -1,7 C -2,2 C 80 % 0 lf 1004,1 hPa 0,0 l/m 0 min 0 min 68 W/m 38,3 km/h (5 Bft) 96,23 %
17.03.2018 16:20 -2,1 C -1,7 C -2,2 C 79 % 0 lf 1004,2 hPa 0,0 l/m 0 min 0 min 66 W/m 38,3 km/h (5 Bft) 97,87 %
17.03.2018 16:22 -2,1 C -2,2 C -2,2 C 79 % 0 lf 1004,1 hPa 0,0 l/m 0 min 0 min 64 W/m 45,1 km/h (6 Bft) 95,74 %
17.03.2018 16:24 -2,1 C -2,2 C -2,8 C 79 % 0 lf 1004,2 hPa 0,0 l/m 0 min 0 min 63 W/m 40,6 km/h (6 Bft) 95,74 %
17.03.2018 16:26 -2,1 C -2,2 C -2,8 C 79 % 0 lf 1004,2 hPa 0,0 l/m 0 min 0 min 65 W/m 42,8 km/h (6 Bft) 97,14 %
17.03.2018 16:28 -2,1 C -1,7 C -2,2 C 79 % 0 lf 1004,1 hPa 0,0 l/m 0 min 0 min 68 W/m 31,5 km/h (5 Bft) 94,23 %
17.03.2018 16:30 -2,1 C -1,7 C -2,2 C 80 % 0 lf 1004,1 hPa 0,0 l/m 0 min 0 min 73 W/m 38,3 km/h (5 Bft) 93,62 %
17.03.2018 16:32 -2,1 C -1,7 C -2,2 C 80 % 0 lf 1004,2 hPa 0,0 l/m 0 min 0 min 73 W/m 42,8 km/h (6 Bft) 89,36 %
17.03.2018 16:34 -2,2 C -2,2 C -2,2 C 80 % 0 lf 1004,1 hPa 0,0 l/m 0 min 0 min 71 W/m 51,8 km/h (7 Bft) 93,62 %
17.03.2018 16:36 -2,2 C -2,2 C -2,2 C 79 % 0 lf 1004,0 hPa 0,0 l/m 0 min 0 min 69 W/m 38,3 km/h (5 Bft) 93,62 %
17.03.2018 16:38 -2,2 C -2,2 C -2,2 C 79 % 0 lf 1004,1 hPa 0,0 l/m 0 min 0 min 70 W/m 42,8 km/h (6 Bft) 93,48 %
17.03.2018 16:40 -2,2 C -2,2 C -2,2 C 79 % 0 lf 1004,1 hPa 0,0 l/m 0 min 0 min 64 W/m 38,3 km/h (5 Bft) 93,62 %
17.03.2018 16:42 -2,2 C -2,2 C -2,8 C 79 % 0 lf 1004,2 hPa 0,0 l/m 0 min 0 min 56 W/m 42,8 km/h (6 Bft) 91,49 %
17.03.2018 16:44 -2,2 C -2,2 C -2,8 C 79 % 0 lf 1004,2 hPa 0,0 l/m 0 min 0 min 53 W/m 31,5 km/h (5 Bft) 93,62 %
17.03.2018 16:46 -2,2 C -2,2 C -2,2 C 79 % 0 lf 1004,1 hPa 0,0 l/m 0 min 0 min 54 W/m 40,6 km/h (6 Bft) 91,49 %
17.03.2018 16:48 -2,2 C -1,7 C -2,2 C 80 % 0 lf 1004,2 hPa 0,0 l/m 0 min 0 min 56 W/m 36,0 km/h (5 Bft) 91,49 %
17.03.2018 16:50 -2,2 C -2,2 C -2,2 C 80 % 0 lf 1004,2 hPa 0,0 l/m 0 min 0 min 56 W/m 38,3 km/h (5 Bft) 93,48 %
17.03.2018 16:52 -2,2 C -2,2 C -2,2 C 80 % 0 lf 1004,1 hPa 0,0 l/m 0 min 0 min 58 W/m 51,8 km/h (7 Bft) 93,62 %
17.03.2018 16:54 -2,2 C -2,2 C -2,2 C 80 % 0 lf 1004,1 hPa 0,0 l/m 0 min 0 min 57 W/m 42,8 km/h (6 Bft) 94,34 %
17.03.2018 16:56 -2,2 C -2,2 C -2,2 C 80 % 0 lf 1004,1 hPa 0,0 l/m 0 min 0 min 58 W/m 36,0 km/h (5 Bft) 87,23 %
17.03.2018 16:58 -2,2 C -2,2 C -2,8 C 80 % 0 lf 1004,0 hPa 0,0 l/m 0 min 0 min 60 W/m 40,6 km/h (6 Bft) 93,62 %
17.03.2018 17:00 -2,2 C -2,2 C -2,8 C 79 % 0 lf 1004,1 hPa 0,0 l/m 0 min 0 min 59 W/m 47,3 km/h (6 Bft) 95,74 %
17.03.2018 17:02 -2,2 C -2,2 C -2,8 C 79 % 0 lf 1004,1 hPa 0,0 l/m 0 min 0 min 56 W/m 42,8 km/h (6 Bft) 91,89 %
17.03.2018 17:04 -2,2 C -2,2 C -2,8 C 79 % 0 lf 1004,2 hPa 0,0 l/m 0 min 0 min 51 W/m 42,8 km/h (6 Bft) 93,62 %
17.03.2018 17:08 -2,2 C -2,2 C -2,8 C 80 % 0 lf 1004,1 hPa 0,0 l/m 0 min 0 min 51 W/m 36,0 km/h (5 Bft) 92,55 %
17.03.2018 17:10 -2,2 C -2,2 C -2,8 C 79 % 0 lf 1004,1 hPa 0,0 l/m 0 min 0 min 50 W/m 40,6 km/h (6 Bft) 89,36 %
17.03.2018 17:12 -2,2 C -2,2 C -2,8 C 80 % 0 lf 1004,2 hPa 0,0 l/m 0 min 0 min 37 W/m 31,5 km/h (5 Bft) 95,74 %
17.03.2018 17:14 -2,3 C -2,2 C -2,8 C 80 % 0 lf 1004,2 hPa 0,0 l/m 0 min 0 min 36 W/m 38,3 km/h (5 Bft) 95,74 %
17.03.2018 17:16 -2,2 C -2,2 C -2,2 C 80 % 0 lf 1004,2 hPa 0,0 l/m 0 min 0 min 36 W/m 36,0 km/h (5 Bft) 91,49 %
17.03.2018 17:18 -2,2 C -2,2 C -2,2 C 80 % 0 lf 1004,2 hPa 0,0 l/m 0 min 0 min 37 W/m 40,6 km/h (6 Bft) 95,65 %
17.03.2018 17:20 -2,2 C -2,2 C -2,2 C 80 % 0 lf 1004,2 hPa 0,0 l/m 0 min 0 min 36 W/m 29,3 km/h (5 Bft) 96,61 %
17.03.2018 17:22 -2,2 C -2,2 C -2,8 C 80 % 0 lf 1004,2 hPa 0,0 l/m 0 min 0 min 38 W/m 47,3 km/h (6 Bft) 91,43 %
17.03.2018 17:24 -2,2 C -2,2 C -2,8 C 80 % 0 lf 1004,2 hPa 0,0 l/m 0 min 0 min 35 W/m 33,8 km/h (5 Bft) 93,62 %
17.03.2018 17:26 -2,2 C -2,2 C -2,8 C 79 % 0 lf 1004,3 hPa 0,0 l/m 0 min 0 min 32 W/m 31,5 km/h (5 Bft) 93,62 %
17.03.2018 17:28 -2,2 C -2,2 C -2,8 C 79 % 0 lf 1004,3 hPa 0,0 l/m 0 min 0 min 31 W/m 47,3 km/h (6 Bft) 93,62 %
17.03.2018 17:30 -2,3 C -2,2 C -2,8 C 79 % 0 lf 1004,3 hPa 0,0 l/m 0 min 0 min 32 W/m 40,6 km/h (6 Bft) 89,13 %
17.03.2018 17:32 -2,3 C -2,2 C -2,8 C 79 % 0 lf 1004,3 hPa 0,0 l/m 0 min 0 min 31 W/m 47,3 km/h (6 Bft) 97,87 %
17.03.2018 17:34 -2,2 C -2,2 C -2,8 C 79 % 0 lf 1004,4 hPa 0,0 l/m 0 min 0 min 30 W/m 36,0 km/h (5 Bft) 95,74 %
17.03.2018 17:36 -2,2 C -2,2 C -2,8 C 79 % 0 lf 1004,3 hPa 0,0 l/m 0 min 0 min 29 W/m 38,3 km/h (5 Bft) 95,74 %
17.03.2018 17:38 -2,2 C -2,2 C -2,8 C 79 % 0 lf 1004,3 hPa 0,0 l/m 0 min 0 min 29 W/m 36,0 km/h (5 Bft) 95,74 %
17.03.2018 17:40 -2,2 C -2,2 C -2,8 C 79 % 0 lf 1004,4 hPa 0,0 l/m 0 min 0 min 26 W/m 36,0 km/h (5 Bft) 93,48 %
17.03.2018 17:42 -2,3 C -2,2 C -2,8 C 79 % 0 lf 1004,3 hPa 0,0 l/m 0 min 0 min 26 W/m 36,0 km/h (5 Bft) 97,87 %
17.03.2018 17:44 -2,3 C -2,2 C -2,8 C 79 % 0 lf 1004,4 hPa 0,0 l/m 0 min 0 min 26 W/m 31,5 km/h (5 Bft) 97,87 %
17.03.2018 17:46 -2,3 C -2,2 C -2,8 C 79 % 0 lf 1004,4 hPa 0,0 l/m 0 min 0 min 25 W/m 36,0 km/h (5 Bft) 97,87 %
17.03.2018 17:48 -2,3 C -2,2 C -2,8 C 79 % 0 lf 1004,5 hPa 0,0 l/m 0 min 0 min 24 W/m 40,6 km/h (6 Bft) 100,00 %
17.03.2018 17:50 -2,3 C -2,2 C -2,8 C 78 % 0 lf 1004,5 hPa 0,0 l/m 0 min 0 min 21 W/m 40,6 km/h (6 Bft) 96,55 %
17.03.2018 17:52 -2,3 C -2,2 C -2,8 C 78 % 0 lf 1004,6 hPa 0,0 l/m 0 min 0 min 19 W/m 33,8 km/h (5 Bft) 100,00 %
17.03.2018 17:54 -2,3 C -2,2 C -2,8 C 78 % 0 lf 1004,6 hPa 0,0 l/m 0 min 0 min 18 W/m 36,0 km/h (5 Bft) 100,00 %
17.03.2018 17:56 -2,3 C -2,2 C -2,8 C 78 % 0 lf 1004,6 hPa 0,0 l/m 0 min 0 min 18 W/m 40,6 km/h (6 Bft) 100,00 %
17.03.2018 17:58 -2,3 C -2,2 C -2,8 C 78 % 0 lf 1004,6 hPa 0,0 l/m 0 min 0 min 17 W/m 40,6 km/h (6 Bft) 93,62 %
17.03.2018 18:00 -2,3 C -2,2 C -2,8 C 78 % 0 lf 1004,7 hPa 0,0 l/m 0 min 0 min 16 W/m 36,0 km/h (5 Bft) 100,00 %
17.03.2018 18:02 -2,3 C -2,2 C -2,8 C 78 % 0 lf 1004,8 hPa 0,0 l/m 0 min 0 min 14 W/m 40,6 km/h (6 Bft) 100,00 %
17.03.2018 18:04 -2,3 C -2,2 C -2,8 C 78 % 0 lf 1004,8 hPa 0,0 l/m 0 min 0 min 12 W/m 36,0 km/h (5 Bft) 100,00 %
17.03.2018 18:07 -2,3 C -2,2 C -3,3 C 77 % 0 lf 1004,8 hPa 0,0 l/m 0 min 0 min 9 W/m 42,8 km/h (6 Bft) 100,00 %
17.03.2018 18:08 -2,3 C -2,2 C -3,3 C 77 % 0 lf 1004,8 hPa 0,0 l/m 0 min 0 min 10 W/m 42,8 km/h (6 Bft) 97,94 %
17.03.2018 18:10 -2,3 C -2,2 C -3,3 C 77 % 0 lf 1004,8 hPa 0,0 l/m 0 min 0 min 8 W/m 33,8 km/h (5 Bft) 100,00 %
17.03.2018 18:12 -2,3 C -2,2 C -2,8 C 77 % 0 lf 1004,8 hPa 0,0 l/m 0 min 0 min 7 W/m 38,3 km/h (5 Bft) 100,00 %
17.03.2018 18:14 -2,3 C -2,2 C -3,3 C 78 % 0 lf 1004,8 hPa 0,0 l/m 0 min 0 min 6 W/m 51,8 km/h (7 Bft) 95,74 %
17.03.2018 18:16 -2,3 C -2,2 C -3,3 C 78 % 0 lf 1004,8 hPa 0,0 l/m 0 min 0 min 5 W/m 31,5 km/h (5 Bft) 100,00 %
17.03.2018 18:18 -2,3 C -2,8 C -3,3 C 79 % 0 lf 1004,9 hPa 0,0 l/m 0 min 0 min 5 W/m 33,8 km/h (5 Bft) 100,00 %
17.03.2018 18:20 -2,3 C -2,8 C -3,3 C 79 % 0 lf 1004,9 hPa 0,0 l/m 0 min 0 min 5 W/m 36,0 km/h (5 Bft) 100,00 %
17.03.2018 18:22 -2,3 C -2,8 C -3,3 C 79 % 0 lf 1004,9 hPa 0,0 l/m 0 min 0 min 3 W/m 38,3 km/h (5 Bft) 97,83 %
17.03.2018 18:24 -2,3 C -2,8 C -3,3 C 80 % 0 lf 1004,9 hPa 0,0 l/m 0 min 0 min 0 W/m 36,0 km/h (5 Bft) 100,00 %
17.03.2018 18:26 -2,4 C -2,8 C -3,3 C 80 % 0 lf 1005,0 hPa 0,0 l/m 0 min 0 min 0 W/m 31,5 km/h (5 Bft) 100,00 %
17.03.2018 18:28 -2,4 C -2,8 C -3,3 C 80 % 0 lf 1005,0 hPa 0,0 l/m 0 min 0 min 0 W/m 42,8 km/h (6 Bft) 100,00 %
17.03.2018 18:30 -2,4 C -2,8 C -3,3 C 80 % 0 lf 1005,0 hPa 0,0 l/m 0 min 0 min 0 W/m 36,0 km/h (5 Bft) 100,00 %
17.03.2018 18:32 -2,5 C -2,8 C -3,3 C 80 % 0 lf 1005,0 hPa 0,0 l/m 0 min 0 min 0 W/m 36,0 km/h (5 Bft) 97,87 %
17.03.2018 18:34 -2,5 C -2,8 C -3,3 C 80 % 0 lf 1005,0 hPa 0,0 l/m 0 min 0 min 0 W/m 38,3 km/h (5 Bft) 95,65 %
17.03.2018 18:36 -2,6 C -2,8 C -3,3 C 79 % 0 lf 1005,0 hPa 0,0 l/m 0 min 0 min 0 W/m 29,3 km/h (5 Bft) 93,18 %
17.03.2018 18:38 -2,6 C -2,8 C -3,3 C 79 % 0 lf 1005,1 hPa 0,0 l/m 0 min 0 min 0 W/m 33,8 km/h (5 Bft) 95,74 %
17.03.2018 18:40 -2,6 C -2,8 C -3,3 C 79 % 0 lf 1005,1 hPa 0,0 l/m 0 min 0 min 0 W/m 33,8 km/h (5 Bft) 97,83 %
17.03.2018 18:42 -2,6 C -2,8 C -3,3 C 80 % 0 lf 1005,0 hPa 0,0 l/m 0 min 0 min 0 W/m 18,0 km/h (3 Bft) 97,87 %
17.03.2018 18:44 -2,6 C -2,8 C -3,3 C 80 % 0 lf 1005,0 hPa 0,0 l/m 0 min 0 min 0 W/m 33,8 km/h (5 Bft) 97,87 %
17.03.2018 18:46 -2,6 C -2,8 C -3,3 C 80 % 0 lf 1005,1 hPa 0,0 l/m 0 min 0 min 0 W/m 22,5 km/h (4 Bft) 97,87 %
17.03.2018 18:48 -2,6 C -2,8 C -3,3 C 80 % 0 lf 1005,0 hPa 0,0 l/m 0 min 0 min 0 W/m 33,8 km/h (5 Bft) 97,87 %
17.03.2018 18:50 -2,6 C -2,8 C -3,3 C 80 % 0 lf 1005,1 hPa 0,0 l/m 0 min 0 min 0 W/m 51,8 km/h (7 Bft) 98,28 %
17.03.2018 18:52 -2,6 C -2,8 C -3,3 C 80 % 0 lf 1005,1 hPa 0,0 l/m 0 min 0 min 0 W/m 29,3 km/h (5 Bft) 100,00 %
17.03.2018 18:54 -2,6 C -2,8 C -3,3 C 80 % 0 lf 1005,1 hPa 0,0 l/m 0 min 0 min 0 W/m 29,3 km/h (5 Bft) 97,87 %
17.03.2018 18:56 -2,6 C -2,8 C -3,3 C 79 % 0 lf 1005,1 hPa 0,0 l/m 0 min 0 min 0 W/m 31,5 km/h (5 Bft) 95,74 %
17.03.2018 18:58 -2,6 C -2,8 C -3,3 C 79 % 0 lf 1005,0 hPa 0,0 l/m 0 min 0 min 0 W/m 33,8 km/h (5 Bft) 93,62 %
17.03.2018 19:00 -2,6 C -2,8 C -3,3 C 79 % 0 lf 1005,1 hPa 0,0 l/m 0 min 0 min 0 W/m 45,1 km/h (6 Bft) 95,74 %
17.03.2018 19:02 -2,6 C -2,8 C -3,3 C 79 % 0 lf 1005,1 hPa 0,0 l/m 0 min 0 min 0 W/m 22,5 km/h (4 Bft) 93,48 %
17.03.2018 19:04 -2,6 C -2,8 C -3,3 C 79 % 0 lf 1005,1 hPa 0,0 l/m 0 min 0 min 0 W/m 31,5 km/h (5 Bft) 95,74 %
17.03.2018 19:06 -2,6 C -2,8 C -3,3 C 79 % 0 lf 1005,2 hPa 0,0 l/m 0 min 0 min 0 W/m 33,8 km/h (5 Bft) 97,87 %
17.03.2018 19:08 -2,6 C -2,8 C -3,3 C 79 % 0 lf 1005,1 hPa 0,0 l/m 0 min 0 min 0 W/m 31,5 km/h (5 Bft) 97,87 %
17.03.2018 19:10 -2,6 C -2,8 C -3,3 C 79 % 0 lf 1005,2 hPa 0,0 l/m 0 min 0 min 0 W/m 36,0 km/h (5 Bft) 97,87 %
17.03.2018 19:12 -2,6 C -2,8 C -3,3 C 79 % 0 lf 1005,2 hPa 0,0 l/m 0 min 0 min 0 W/m 31,5 km/h (5 Bft) 97,87 %
17.03.2018 19:14 -2,6 C -2,2 C -3,3 C 79 % 0 lf 1005,2 hPa 0,0 l/m 0 min 0 min 0 W/m 47,3 km/h (6 Bft) 95,65 %
17.03.2018 19:16 -2,6 C -2,2 C -3,3 C 78 % 0 lf 1005,2 hPa 0,0 l/m 0 min 0 min 0 W/m 40,6 km/h (6 Bft) 97,87 %
17.03.2018 19:18 -2,6 C -2,2 C -3,3 C 77 % 0 lf 1005,2 hPa 0,0 l/m 0 min 0 min 0 W/m 31,5 km/h (5 Bft) 97,87 %
17.03.2018 19:20 -2,6 C -2,2 C -3,3 C 77 % 0 lf 1005,3 hPa 0,0 l/m 0 min 0 min 0 W/m 31,5 km/h (5 Bft) 97,87 %
17.03.2018 19:22 -2,6 C -2,2 C -3,3 C 77 % 0 lf 1005,3 hPa 0,0 l/m 0 min 0 min 0 W/m 33,8 km/h (5 Bft) 97,87 %
17.03.2018 19:24 -2,6 C -2,8 C -3,3 C 78 % 0 lf 1005,4 hPa 0,0 l/m 0 min 0 min 0 W/m 31,5 km/h (5 Bft) 95,83 %
17.03.2018 19:26 -2,5 C -2,8 C -3,3 C 78 % 0 lf 1005,4 hPa 0,0 l/m 0 min 0 min 0 W/m 33,8 km/h (5 Bft) 97,83 %
17.03.2018 19:28 -2,5 C -2,8 C -3,3 C 78 % 0 lf 1005,4 hPa 0,0 l/m 0 min 0 min 0 W/m 27,0 km/h (4 Bft) 97,87 %
17.03.2018 19:30 -2,6 C -2,8 C -3,3 C 78 % 0 lf 1005,4 hPa 0,0 l/m 0 min 0 min 0 W/m 31,5 km/h (5 Bft) 95,74 %
17.03.2018 19:32 -2,5 C -2,8 C -3,3 C 78 % 0 lf 1005,4 hPa 0,0 l/m 0 min 0 min 0 W/m 29,3 km/h (5 Bft) 97,87 %
17.03.2018 19:34 -2,5 C -2,2 C -3,3 C 78 % 0 lf 1005,3 hPa 0,0 l/m 0 min 0 min 0 W/m 27,0 km/h (4 Bft) 95,74 %
17.03.2018 19:36 -2,6 C -2,8 C -3,3 C 78 % 0 lf 1005,3 hPa 0,0 l/m 0 min 0 min 0 W/m 27,0 km/h (4 Bft) 97,83 %
17.03.2018 19:38 -2,5 C -2,8 C -3,3 C 78 % 0 lf 1005,2 hPa 0,0 l/m 0 min 0 min 0 W/m 36,0 km/h (5 Bft) 95,74 %
17.03.2018 19:40 -2,6 C -2,2 C -3,3 C 78 % 0 lf 1005,3 hPa 0,0 l/m 0 min 0 min 0 W/m 29,3 km/h (5 Bft) 95,74 %
17.03.2018 19:42 -2,6 C -2,2 C -3,3 C 77 % 0 lf 1005,4 hPa 0,0 l/m 0 min 0 min 0 W/m 31,5 km/h (5 Bft) 95,74 %
17.03.2018 19:44 -2,6 C -2,2 C -3,3 C 77 % 0 lf 1005,3 hPa 0,0 l/m 0 min 0 min 0 W/m 27,0 km/h (4 Bft) 97,87 %
17.03.2018 19:46 -2,5 C -2,2 C -3,3 C 77 % 0 lf 1005,3 hPa 0,0 l/m 0 min 0 min 0 W/m 31,5 km/h (5 Bft) 97,87 %
17.03.2018 19:48 -2,6 C -2,2 C -3,3 C 77 % 0 lf 1005,3 hPa 0,0 l/m 0 min 0 min 0 W/m 40,6 km/h (6 Bft) 97,83 %
17.03.2018 19:50 -2,5 C -2,2 C -3,3 C 77 % 0 lf 1005,3 hPa 0,0 l/m 0 min 0 min 0 W/m 47,3 km/h (6 Bft) 95,74 %
17.03.2018 19:52 -2,5 C -2,2 C -3,3 C 76 % 0 lf 1005,4 hPa 0,0 l/m 0 min 0 min 0 W/m 45,1 km/h (6 Bft) 93,62 %
17.03.2018 19:54 -2,5 C -2,2 C -3,3 C 76 % 0 lf 1005,4 hPa 0,0 l/m 0 min 0 min 0 W/m 51,8 km/h (7 Bft) 97,87 %
17.03.2018 19:56 -2,5 C -2,2 C -3,3 C 76 % 0 lf 1005,4 hPa 0,0 l/m 0 min 0 min 0 W/m 40,6 km/h (6 Bft) 97,87 %
17.03.2018 19:58 -2,5 C -2,2 C -3,3 C 76 % 0 lf 1005,4 hPa 0,0 l/m 0 min 0 min 0 W/m 38,3 km/h (5 Bft) 95,74 %
17.03.2018 20:00 -2,5 C -2,2 C -3,3 C 76 % 0 lf 1005,4 hPa 0,0 l/m 0 min 0 min 0 W/m 36,0 km/h (5 Bft) 95,65 %
17.03.2018 20:02 -2,5 C -2,2 C -3,3 C 76 % 0 lf 1005,4 hPa 0,0 l/m 0 min 0 min 0 W/m 29,3 km/h (5 Bft) 93,62 %
17.03.2018 20:04 -2,5 C -2,8 C -3,3 C 77 % 0 lf 1005,4 hPa 0,0 l/m 0 min 0 min 0 W/m 36,0 km/h (5 Bft) 93,62 %
17.03.2018 20:06 -2,5 C -2,8 C -3,3 C 77 % 0 lf 1005,4 hPa 0,0 l/m 0 min 0 min 0 W/m 29,3 km/h (5 Bft) 97,96 %
17.03.2018 20:08 -2,5 C -2,8 C -3,3 C 77 % 0 lf 1005,5 hPa 0,0 l/m 0 min 0 min 0 W/m 36,0 km/h (5 Bft) 95,74 %
17.03.2018 20:10 -2,5 C -2,8 C -3,3 C 77 % 0 lf 1005,4 hPa 0,0 l/m 0 min 0 min 0 W/m 22,5 km/h (4 Bft) 97,87 %
17.03.2018 20:12 -2,5 C -2,8 C -3,3 C 77 % 0 lf 1005,5 hPa 0,0 l/m 0 min 0 min 0 W/m 33,8 km/h (5 Bft) 97,87 %
17.03.2018 20:14 -2,5 C -2,8 C -3,3 C 77 % 0 lf 1005,4 hPa 0,0 l/m 0 min 0 min 0 W/m 33,8 km/h (5 Bft) 95,74 %
17.03.2018 20:16 -2,5 C -2,8 C -3,3 C 77 % 0 lf 1005,5 hPa 0,0 l/m 0 min 0 min 0 W/m 38,3 km/h (5 Bft) 97,87 %
17.03.2018 20:18 -2,5 C -2,2 C -3,3 C 77 % 0 lf 1005,5 hPa 0,0 l/m 0 min 0 min 0 W/m 20,3 km/h (4 Bft) 95,65 %
17.03.2018 20:20 -2,5 C -2,2 C -3,3 C 77 % 0 lf 1005,5 hPa 0,0 l/m 0 min 0 min 0 W/m 20,3 km/h (4 Bft) 95,74 %
17.03.2018 20:22 -2,5 C -2,8 C -3,3 C 77 % 0 lf 1005,5 hPa 0,0 l/m 0 min 0 min 0 W/m 24,8 km/h (4 Bft) 95,74 %
17.03.2018 20:24 -2,5 C -2,8 C -3,3 C 77 % 0 lf 1005,6 hPa 0,0 l/m 0 min 0 min 0 W/m 31,5 km/h (5 Bft) 95,74 %
17.03.2018 20:26 -2,5 C -2,8 C -3,3 C 77 % 0 lf 1005,5 hPa 0,0 l/m 0 min 0 min 0 W/m 38,3 km/h (5 Bft) 95,74 %
17.03.2018 20:28 -2,5 C -2,8 C -3,3 C 77 % 0 lf 1005,6 hPa 0,0 l/m 0 min 0 min 0 W/m 40,6 km/h (6 Bft) 97,87 %
17.03.2018 20:30 -2,5 C -2,2 C -3,3 C 77 % 0 lf 1005,6 hPa 0,0 l/m 0 min 0 min 0 W/m 40,6 km/h (6 Bft) 97,83 %
17.03.2018 20:32 -2,5 C -2,8 C -3,3 C 77 % 0 lf 1005,5 hPa 0,0 l/m 0 min 0 min 0 W/m 40,6 km/h (6 Bft) 89,36 %
17.03.2018 20:34 -2,5 C -2,8 C -3,3 C 77 % 0 lf 1005,6 hPa 0,0 l/m 0 min 0 min 0 W/m 47,3 km/h (6 Bft) 95,74 %
17.03.2018 20:36 -2,5 C -2,2 C -3,3 C 77 % 0 lf 1005,6 hPa 0,0 l/m 0 min 0 min 0 W/m 36,0 km/h (5 Bft) 93,62 %
17.03.2018 20:38 -2,5 C -2,2 C -3,3 C 77 % 0 lf 1005,6 hPa 0,0 l/m 0 min 0 min 0 W/m 33,8 km/h (5 Bft) 93,62 %
17.03.2018 20:40 -2,5 C -2,2 C -3,3 C 77 % 0 lf 1005,7 hPa 0,0 l/m 0 min 0 min 0 W/m 38,3 km/h (5 Bft) 93,62 %
17.03.2018 20:42 -2,5 C -2,2 C -3,3 C 77 % 0 lf 1005,7 hPa 0,0 l/m 0 min 0 min 0 W/m 38,3 km/h (5 Bft) 93,48 %
17.03.2018 20:44 -2,5 C -2,2 C -3,3 C 77 % 0 lf 1005,7 hPa 0,0 l/m 0 min 0 min 0 W/m 36,0 km/h (5 Bft) 95,74 %
17.03.2018 20:46 -2,5 C -2,2 C -3,3 C 77 % 0 lf 1005,8 hPa 0,0 l/m 0 min 0 min 0 W/m 29,3 km/h (5 Bft) 95,74 %
17.03.2018 20:48 -2,5 C -2,2 C -3,3 C 77 % 0 lf 1005,7 hPa 0,0 l/m 0 min 0 min 0 W/m 51,8 km/h (7 Bft) 93,62 %
17.03.2018 20:50 -2,5 C -2,2 C -3,3 C 76 % 0 lf 1005,8 hPa 0,0 l/m 0 min 0 min 0 W/m 40,6 km/h (6 Bft) 95,74 %
17.03.2018 20:52 -2,5 C -2,2 C -3,3 C 76 % 0 lf 1005,7 hPa 0,0 l/m 0 min 0 min 0 W/m 40,6 km/h (6 Bft) 93,62 %
17.03.2018 20:54 -2,5 C -2,2 C -3,3 C 76 % 0 lf 1005,8 hPa 0,0 l/m 0 min 0 min 0 W/m 40,6 km/h (6 Bft) 95,65 %
17.03.2018 20:56 -2,5 C -2,2 C -3,3 C 76 % 0 lf 1005,8 hPa 0,0 l/m 0 min 0 min 0 W/m 42,8 km/h (6 Bft) 95,74 %
17.03.2018 20:58 -2,5 C -2,2 C -3,3 C 76 % 0 lf 1005,9 hPa 0,0 l/m 0 min 0 min 0 W/m 22,5 km/h (4 Bft) 95,74 %
17.03.2018 21:00 -2,5 C -2,2 C -3,3 C 76 % 0 lf 1005,7 hPa 0,0 l/m 0 min 0 min 0 W/m 40,6 km/h (6 Bft) 91,49 %
17.03.2018 21:02 -2,5 C -2,2 C -3,3 C 76 % 0 lf 1005,8 hPa 0,0 l/m 0 min 0 min 0 W/m 31,5 km/h (5 Bft) 95,74 %
17.03.2018 21:04 -2,5 C -2,2 C -3,3 C 76 % 0 lf 1005,8 hPa 0,0 l/m 0 min 0 min 0 W/m 24,8 km/h (4 Bft) 93,62 %
17.03.2018 21:06 -2,4 C -2,2 C -3,3 C 76 % 0 lf 1005,9 hPa 0,0 l/m 0 min 0 min 0 W/m 49,6 km/h (6 Bft) 93,48 %
17.03.2018 21:08 -2,4 C -2,2 C -3,3 C 76 % 0 lf 1006,0 hPa 0,0 l/m 0 min 0 min 0 W/m 47,3 km/h (6 Bft) 97,87 %
17.03.2018 21:10 -2,4 C -2,2 C -3,3 C 76 % 0 lf 1006,0 hPa 0,0 l/m 0 min 0 min 0 W/m 27,0 km/h (4 Bft) 95,74 %
17.03.2018 21:12 -2,4 C -2,2 C -3,3 C 75 % 0 lf 1005,9 hPa 0,0 l/m 0 min 0 min 0 W/m 36,0 km/h (5 Bft) 95,74 %
17.03.2018 21:14 -2,4 C -2,2 C -3,3 C 75 % 0 lf 1006,0 hPa 0,0 l/m 0 min 0 min 0 W/m 51,8 km/h (7 Bft) 97,87 %
17.03.2018 21:16 -2,4 C -2,2 C -3,3 C 75 % 0 lf 1006,0 hPa 0,0 l/m 0 min 0 min 0 W/m 40,6 km/h (6 Bft) 95,65 %
17.03.2018 21:18 -2,4 C -2,2 C -3,3 C 75 % 0 lf 1006,0 hPa 0,0 l/m 0 min 0 min 0 W/m 33,8 km/h (5 Bft) 95,74 %
17.03.2018 21:20 -2,4 C -2,2 C -3,3 C 75 % 0 lf 1006,0 hPa 0,0 l/m 0 min 0 min 0 W/m 38,3 km/h (5 Bft) 95,74 %
17.03.2018 21:22 -2,4 C -2,2 C -3,3 C 75 % 0 lf 1006,0 hPa 0,0 l/m 0 min 0 min 0 W/m 36,0 km/h (5 Bft) 93,62 %
17.03.2018 21:24 -2,4 C -2,2 C -3,3 C 75 % 0 lf 1006,0 hPa 0,0 l/m 0 min 0 min 0 W/m 45,1 km/h (6 Bft) 97,87 %
17.03.2018 21:26 -2,4 C -2,2 C -3,3 C 75 % 0 lf 1006,0 hPa 0,0 l/m 0 min 0 min 0 W/m 40,6 km/h (6 Bft) 100,00 %
17.03.2018 21:28 -2,4 C -2,2 C -3,3 C 75 % 0 lf 1006,0 hPa 0,0 l/m 0 min 0 min 0 W/m 33,8 km/h (5 Bft) 100,00 %
17.03.2018 21:30 -2,4 C -2,2 C -3,3 C 75 % 0 lf 1006,0 hPa 0,0 l/m 0 min 0 min 0 W/m 36,0 km/h (5 Bft) 100,00 %
17.03.2018 21:32 -2,4 C -2,2 C -3,3 C 75 % 0 lf 1006,0 hPa 0,0 l/m 0 min 0 min 0 W/m 29,3 km/h (5 Bft) 97,87 %
17.03.2018 21:34 -2,4 C -2,2 C -3,3 C 75 % 0 lf 1006,0 hPa 0,0 l/m 0 min 0 min 0 W/m 38,3 km/h (5 Bft) 97,87 %
17.03.2018 21:36 -2,4 C -2,2 C -3,3 C 75 % 0 lf 1006,0 hPa 0,0 l/m 0 min 0 min 0 W/m 31,5 km/h (5 Bft) 97,87 %
17.03.2018 21:38 -2,4 C -2,2 C -3,3 C 75 % 0 lf 1006,0 hPa 0,0 l/m 0 min 0 min 0 W/m 36,0 km/h (5 Bft) 93,62 %
17.03.2018 21:40 -2,4 C -2,2 C -3,3 C 75 % 0 lf 1006,0 hPa 0,0 l/m 0 min 0 min 0 W/m 36,0 km/h (5 Bft) 93,48 %
17.03.2018 21:42 -2,4 C -2,2 C -3,3 C 75 % 0 lf 1006,0 hPa 0,0 l/m 0 min 0 min 0 W/m 49,6 km/h (6 Bft) 93,62 %
17.03.2018 21:44 -2,4 C -2,2 C -3,3 C 75 % 0 lf 1006,0 hPa 0,0 l/m 0 min 0 min 0 W/m 38,3 km/h (5 Bft) 95,74 %
17.03.2018 21:46 -2,3 C -2,2 C -3,3 C 75 % 0 lf 1006,0 hPa 0,0 l/m 0 min 0 min 0 W/m 49,6 km/h (6 Bft) 95,74 %
17.03.2018 21:48 -2,4 C -2,2 C -3,3 C 74 % 0 lf 1006,0 hPa 0,0 l/m 0 min 0 min 0 W/m 31,5 km/h (5 Bft) 97,87 %
17.03.2018 21:50 -2,3 C -2,2 C -3,3 C 75 % 0 lf 1006,0 hPa 0,0 l/m 0 min 0 min 0 W/m 29,3 km/h (5 Bft) 97,87 %
17.03.2018 21:52 -2,3 C -2,2 C -3,3 C 75 % 0 lf 1006,0 hPa 0,0 l/m 0 min 0 min 0 W/m 24,8 km/h (4 Bft) 95,65 %
17.03.2018 21:54 -2,3 C -2,2 C -3,3 C 75 % 0 lf 1006,0 hPa 0,0 l/m 0 min 0 min 0 W/m 33,8 km/h (5 Bft) 97,87 %
17.03.2018 21:56 -2,3 C -2,2 C -3,3 C 75 % 0 lf 1006,0 hPa 0,0 l/m 0 min 0 min 0 W/m 33,8 km/h (5 Bft) 93,62 %
17.03.2018 21:58 -2,3 C -2,2 C -3,3 C 75 % 0 lf 1006,0 hPa 0,0 l/m 0 min 0 min 0 W/m 38,3 km/h (5 Bft) 95,74 %
17.03.2018 22:00 -2,3 C -2,2 C -3,3 C 75 % 0 lf 1006,0 hPa 0,0 l/m 0 min 0 min 0 W/m 42,8 km/h (6 Bft) 97,87 %
17.03.2018 22:02 -2,3 C -2,2 C -3,3 C 75 % 0 lf 1005,9 hPa 0,0 l/m 0 min 0 min 0 W/m 36,0 km/h (5 Bft) 95,65 %
17.03.2018 22:04 -2,3 C -2,2 C -3,3 C 75 % 0 lf 1006,0 hPa 0,0 l/m 0 min 0 min 0 W/m 29,3 km/h (5 Bft) 95,74 %
17.03.2018 22:06 -2,3 C -2,2 C -3,3 C 75 % 0 lf 1006,0 hPa 0,0 l/m 0 min 0 min 0 W/m 40,6 km/h (6 Bft) 95,74 %
17.03.2018 22:08 -2,3 C -2,2 C -3,3 C 75 % 0 lf 1006,0 hPa 0,0 l/m 0 min 0 min 0 W/m 54,1 km/h (7 Bft) 97,87 %
17.03.2018 22:10 -2,3 C -2,2 C -3,3 C 75 % 0 lf 1006,0 hPa 0,0 l/m 0 min 0 min 0 W/m 42,8 km/h (6 Bft) 97,87 %
17.03.2018 22:12 -2,3 C -2,2 C -3,3 C 75 % 0 lf 1006,0 hPa 0,0 l/m 0 min 0 min 0 W/m 27,0 km/h (4 Bft) 93,62 %
17.03.2018 22:14 -2,3 C -2,2 C -3,3 C 75 % 0 lf 1006,0 hPa 0,0 l/m 0 min 0 min 0 W/m 29,3 km/h (5 Bft) 91,30 %
17.03.2018 22:16 -2,3 C -2,2 C -3,3 C 75 % 0 lf 1005,9 hPa 0,0 l/m 0 min 0 min 0 W/m 29,3 km/h (5 Bft) 91,49 %
17.03.2018 22:18 -2,3 C -2,2 C -3,3 C 75 % 0 lf 1006,0 hPa 0,0 l/m 0 min 0 min 0 W/m 36,0 km/h (5 Bft) 97,87 %
17.03.2018 22:20 -2,3 C -2,2 C -3,3 C 75 % 0 lf 1005,9 hPa 0,0 l/m 0 min 0 min 0 W/m 36,0 km/h (5 Bft) 100,00 %
17.03.2018 22:22 -2,3 C -2,2 C -3,3 C 75 % 0 lf 1006,0 hPa 0,0 l/m 0 min 0 min 0 W/m 33,8 km/h (5 Bft) 93,62 %
17.03.2018 22:24 -2,3 C -2,2 C -3,3 C 75 % 0 lf 1005,9 hPa 0,0 l/m 0 min 0 min 0 W/m 31,5 km/h (5 Bft) 95,74 %
17.03.2018 22:26 -2,3 C -2,2 C -3,3 C 75 % 0 lf 1005,9 hPa 0,0 l/m 0 min 0 min 0 W/m 40,6 km/h (6 Bft) 95,65 %
17.03.2018 22:28 -2,3 C -2,2 C -3,3 C 75 % 0 lf 1006,0 hPa 0,0 l/m 0 min 0 min 0 W/m 33,8 km/h (5 Bft) 97,87 %
17.03.2018 22:30 -2,3 C -2,2 C -3,3 C 75 % 0 lf 1006,0 hPa 0,0 l/m 0 min 0 min 0 W/m 40,6 km/h (6 Bft) 91,49 %
17.03.2018 22:32 -2,3 C -2,2 C -3,3 C 75 % 0 lf 1006,0 hPa 0,0 l/m 0 min 0 min 0 W/m 31,5 km/h (5 Bft) 95,83 %
17.03.2018 22:34 -2,3 C -2,2 C -3,3 C 75 % 0 lf 1006,0 hPa 0,0 l/m 0 min 0 min 0 W/m 31,5 km/h (5 Bft) 91,49 %
17.03.2018 22:36 -2,3 C -2,2 C -3,3 C 76 % 0 lf 1006,0 hPa 0,0 l/m 0 min 0 min 0 W/m 31,5 km/h (5 Bft) 93,62 %
17.03.2018 22:38 -2,3 C -2,2 C -3,3 C 76 % 0 lf 1005,9 hPa 0,0 l/m 0 min 0 min 0 W/m 38,3 km/h (5 Bft) 95,65 %
17.03.2018 22:40 -2,3 C -2,2 C -3,3 C 76 % 0 lf 1006,0 hPa 0,0 l/m 0 min 0 min 0 W/m 27,0 km/h (4 Bft) 95,74 %
17.03.2018 22:42 -2,3 C -2,2 C -3,3 C 76 % 0 lf 1006,0 hPa 0,0 l/m 0 min 0 min 0 W/m 33,8 km/h (5 Bft) 93,62 %
17.03.2018 22:44 -2,3 C -2,2 C -3,3 C 76 % 0 lf 1005,9 hPa 0,0 l/m 0 min 0 min 0 W/m 31,5 km/h (5 Bft) 93,62 %
17.03.2018 22:46 -2,3 C -2,2 C -3,3 C 76 % 0 lf 1006,0 hPa 0,0 l/m 0 min 0 min 0 W/m 36,0 km/h (5 Bft) 95,83 %
17.03.2018 22:48 -2,3 C -2,2 C -3,3 C 76 % 0 lf 1005,9 hPa 0,0 l/m 0 min 0 min 0 W/m 22,5 km/h (4 Bft) 93,62 %
17.03.2018 22:50 -2,3 C -2,2 C -3,3 C 76 % 0 lf 1006,0 hPa 0,0 l/m 0 min 0 min 0 W/m 27,0 km/h (4 Bft) 95,65 %
17.03.2018 22:52 -2,3 C -2,2 C -3,3 C 76 % 0 lf 1005,9 hPa 0,0 l/m 0 min 0 min 0 W/m 33,8 km/h (5 Bft) 95,74 %
17.03.2018 22:54 -2,3 C -2,2 C -3,3 C 76 % 0 lf 1006,0 hPa 0,0 l/m 0 min 0 min 0 W/m 33,8 km/h (5 Bft) 95,74 %
17.03.2018 22:56 -2,3 C -2,2 C -3,3 C 76 % 0 lf 1005,9 hPa 0,0 l/m 0 min 0 min 0 W/m 38,3 km/h (5 Bft) 95,74 %
17.03.2018 22:58 -2,3 C -2,2 C -3,3 C 76 % 0 lf 1005,9 hPa 0,0 l/m 0 min 0 min 0 W/m 24,8 km/h (4 Bft) 95,74 %
17.03.2018 23:00 -2,3 C -2,2 C -3,3 C 76 % 0 lf 1006,0 hPa 0,0 l/m 0 min 0 min 0 W/m 31,5 km/h (5 Bft) 95,74 %
17.03.2018 23:02 -2,3 C -2,2 C -3,3 C 76 % 0 lf 1005,9 hPa 0,0 l/m 0 min 0 min 0 W/m 40,6 km/h (6 Bft) 95,65 %
17.03.2018 23:04 -2,3 C -2,2 C -3,3 C 76 % 0 lf 1005,9 hPa 0,0 l/m 0 min 0 min 0 W/m 27,0 km/h (4 Bft) 97,87 %
17.03.2018 23:06 -2,3 C -2,8 C -3,3 C 76 % 0 lf 1005,9 hPa 0,0 l/m 0 min 0 min 0 W/m 27,0 km/h (4 Bft) 97,87 %
17.03.2018 23:08 -2,4 C -2,8 C -3,3 C 76 % 0 lf 1006,0 hPa 0,0 l/m 0 min 0 min 0 W/m 22,5 km/h (4 Bft) 97,87 %
17.03.2018 23:10 -2,4 C -2,8 C -3,3 C 76 % 0 lf 1005,9 hPa 0,0 l/m 0 min 0 min 0 W/m 36,0 km/h (5 Bft) 100,00 %
17.03.2018 23:12 -2,4 C -2,8 C -3,3 C 76 % 0 lf 1005,9 hPa 0,0 l/m 0 min 0 min 0 W/m 38,3 km/h (5 Bft) 95,65 %
17.03.2018 23:14 -2,4 C -2,8 C -3,9 C 76 % 0 lf 1006,0 hPa 0,0 l/m 0 min 0 min 0 W/m 33,8 km/h (5 Bft) 100,00 %
17.03.2018 23:16 -2,4 C -2,8 C -3,9 C 76 % 0 lf 1006,0 hPa 0,0 l/m 0 min 0 min 0 W/m 36,0 km/h (5 Bft) 100,00 %
17.03.2018 23:18 -2,4 C -2,8 C -3,3 C 77 % 0 lf 1006,0 hPa 0,0 l/m 0 min 0 min 0 W/m 36,0 km/h (5 Bft) 97,87 %
17.03.2018 23:20 -2,4 C -2,8 C -3,3 C 77 % 0 lf 1006,0 hPa 0,0 l/m 0 min 0 min 0 W/m 24,8 km/h (4 Bft) 100,00 %
17.03.2018 23:22 -2,4 C -2,8 C -3,3 C 77 % 0 lf 1006,0 hPa 0,0 l/m 0 min 0 min 0 W/m 33,8 km/h (5 Bft) 100,00 %
17.03.2018 23:24 -2,4 C -2,2 C -3,3 C 76 % 0 lf 1005,9 hPa 0,0 l/m 0 min 0 min 0 W/m 33,8 km/h (5 Bft) 100,00 %
17.03.2018 23:26 -2,4 C -2,2 C -3,3 C 76 % 0 lf 1006,0 hPa 0,0 l/m 0 min 0 min 0 W/m 27,0 km/h (4 Bft) 97,87 %
17.03.2018 23:28 -2,4 C -2,2 C -3,3 C 76 % 0 lf 1006,0 hPa 0,0 l/m 0 min 0 min 0 W/m 24,8 km/h (4 Bft) 100,00 %
17.03.2018 23:30 -2,4 C -2,2 C -3,3 C 76 % 0 lf 1006,0 hPa 0,0 l/m 0 min 0 min 0 W/m 24,8 km/h (4 Bft) 100,00 %
17.03.2018 23:32 -2,4 C -2,2 C -3,3 C 76 % 0 lf 1005,9 hPa 0,0 l/m 0 min 0 min 0 W/m 45,1 km/h (6 Bft) 100,00 %
17.03.2018 23:34 -2,4 C -2,2 C -3,3 C 76 % 0 lf 1005,9 hPa 0,0 l/m 0 min 0 min 0 W/m 31,5 km/h (5 Bft) 100,00 %
17.03.2018 23:36 -2,4 C -2,2 C -3,3 C 76 % 0 lf 1006,0 hPa 0,0 l/m 0 min 0 min 0 W/m 45,1 km/h (6 Bft) 100,00 %
17.03.2018 23:38 -2,4 C -2,2 C -3,3 C 76 % 0 lf 1005,9 hPa 0,0 l/m 0 min 0 min 0 W/m 47,3 km/h (6 Bft) 100,00 %
17.03.2018 23:40 -2,4 C -2,2 C -3,3 C 76 % 0 lf 1005,8 hPa 0,0 l/m 0 min 0 min 0 W/m 36,0 km/h (5 Bft) 97,87 %
17.03.2018 23:42 -2,4 C -2,2 C -3,3 C 76 % 0 lf 1005,9 hPa 0,0 l/m 0 min 0 min 0 W/m 36,0 km/h (5 Bft) 100,00 %
17.03.2018 23:44 -2,4 C -2,2 C -3,3 C 76 % 0 lf 1005,9 hPa 0,0 l/m 0 min 0 min 0 W/m 33,8 km/h (5 Bft) 100,00 %
17.03.2018 23:46 -2,4 C -2,2 C -3,3 C 76 % 0 lf 1006,0 hPa 0,0 l/m 0 min 0 min 0 W/m 29,3 km/h (5 Bft) 100,00 %
17.03.2018 23:48 -2,4 C -2,8 C -3,3 C 76 % 0 lf 1006,0 hPa 0,0 l/m 0 min 0 min 0 W/m 36,0 km/h (5 Bft) 95,74 %
17.03.2018 23:50 -2,4 C -2,2 C -3,3 C 76 % 0 lf 1006,0 hPa 0,0 l/m 0 min 0 min 0 W/m 36,0 km/h (5 Bft) 100,00 %
17.03.2018 23:52 -2,4 C -2,2 C -3,3 C 76 % 0 lf 1006,1 hPa 0,0 l/m 0 min 0 min 0 W/m 22,5 km/h (4 Bft) 97,87 %
17.03.2018 23:54 -2,4 C -2,8 C -3,3 C 76 % 0 lf 1006,1 hPa 0,0 l/m 0 min 0 min 0 W/m 24,8 km/h (4 Bft) 100,00 %
17.03.2018 23:56 -2,4 C -2,2 C -3,3 C 76 % 0 lf 1006,0 hPa 0,0 l/m 0 min 0 min 0 W/m 31,5 km/h (5 Bft) 95,74 %
17.03.2018 23:58 -2,4 C -2,2 C -3,3 C 76 % 0 lf 1006,0 hPa 0,0 l/m 0 min 0 min 0 W/m 36,0 km/h (5 Bft) 97,87 %
_ Min-Zeit 10:14 08:42 23:14 21:48 00:00 14:34 - - - - 18:42 06:04
Minimum _ -2,7 C -2,8 C -3,9 C 74 % 0 lf 1003,8 hPa - - - - 18,0 km/h (3 Bft) 86,00 %
_ Max-Zeit 00:00 12:52 00:00 04:42 12:04 23:52 07:02 12:08 11:58 12:48 07:52 00:22
Maximum _ 0,8 C 1,1 C -0,6 C 92 % 15 lf 1006,1 hPa 0,2 l/m 4 min 2 min 402 W/m 58,6 km/h
O (7 Bft)
100,00 %
Durchschnitt _ -1,7 C -1,5 C -2,2 C 85 % 1 lf 1004,8 hPa #1,0 l/m #1:00 h #6 min. 125 W/m 37,5 km/h (5 Bft) 96,51 %
© 2018 W. Hausmann